Observation data for Clyde on 03/12/2018      Previous  Date  Next       Current Mesonet Observations  Soil Data  Daily Summary Page  Observations in Plain Language
KCL2 120500Z 03010KT 08/M03 A3032 RMK A01 T00831030  RH  045%=      5-min Rain = 0
KCL2 120501Z 04012KT 08/M03 A3032 RMK A01 T00831029  RH  045%=      5-min Rain = 0
KCL2 120502Z 04012KT 08/M03 A3032 RMK A01 T00821030  RH  045%=      5-min Rain = 0
KCL2 120503Z 04012KT 08/M03 A3032 RMK A01 T00821029  RH  045%=      5-min Rain = 0
KCL2 120504Z 04012KT 08/M03 A3032 RMK A01 T00821029  RH  045%=      5-min Rain = 0
KCL2 120505Z 04010KT 08/M03 A3032 RMK A01 T00811030  RH  046%=      5-min Rain = 0
KCL2 120506Z 04009KT 08/M03 A3032 RMK A01 T00811029  RH  046%=      5-min Rain = 0
KCL2 120507Z 05013KT 08/M03 A3032 RMK A01 T00801029  RH  046%=      5-min Rain = 0
KCL2 120508Z 04012KT 08/M03 A3032 RMK A01 T00801029  RH  046%=      5-min Rain = 0
KCL2 120509Z 04013KT 08/M03 A3032 RMK A01 T00801029  RH  046%=      5-min Rain = 0
KCL2 120510Z 04009KT 08/M03 A3032 RMK A01 T00801029  RH  046%=      5-min Rain = 0
KCL2 120511Z 04011KT 08/M03 A3033 RMK A01 T00781029  RH  047%=      5-min Rain = 0
KCL2 120512Z 04010KT 08/M03 A3032 RMK A01 T00781029  RH  047%=      5-min Rain = 0
KCL2 120513Z 04011KT 08/M03 A3033 RMK A01 T00771029  RH  047%=      5-min Rain = 0
KCL2 120514Z 04011KT 08/M03 A3033 RMK A01 T00771028  RH  047%=      5-min Rain = 0
KCL2 120515Z 05010KT 08/M03 A3033 RMK A01 T00771029  RH  047%=      5-min Rain = 0
KCL2 120516Z 05011KT 08/M03 A3033 RMK A01 T00771028  RH  047%=      5-min Rain = 0
KCL2 120517Z 04010KT 08/M03 A3033 RMK A01 T00761028  RH  048%=      5-min Rain = 0
KCL2 120518Z 05009KT 08/M03 A3033 RMK A01 T00761028  RH  048%=      5-min Rain = 0
KCL2 120519Z 04010KT 08/M03 A3033 RMK A01 T00751028  RH  048%=      5-min Rain = 0
KCL2 120520Z 04012KT 07/M03 A3033 RMK A01 T00741028  RH  048%=      5-min Rain = 0
KCL2 120521Z 04011KT 07/M03 A3033 RMK A01 T00741028  RH  048%=      5-min Rain = 0
KCL2 120522Z 04010KT 08/M03 A3033 RMK A01 T00751028  RH  048%=      5-min Rain = 0
KCL2 120523Z 04009KT 07/M03 A3033 RMK A01 T00741028  RH  048%=      5-min Rain = 0
KCL2 120524Z 04010KT 07/M03 A3033 RMK A01 T00731028  RH  049%=      5-min Rain = 0
KCL2 120525Z 04010KT 07/M03 A3033 RMK A01 T00731027  RH  049%=      5-min Rain = 0
KCL2 120526Z 04010KT 07/M03 A3033 RMK A01 T00731027  RH  049%=      5-min Rain = 0
KCL2 120527Z 04008KT 07/M03 A3033 RMK A01 T00721027  RH  049%=      5-min Rain = 0
KCL2 120528Z 04009KT 07/M03 A3033 RMK A01 T00721027  RH  049%=      5-min Rain = 0
KCL2 120529Z 04010KT 07/M03 A3033 RMK A01 T00711027  RH  050%=      5-min Rain = 0
KCL2 120530Z 04010KT 07/M03 A3033 RMK A01 T00711027  RH  050%=      5-min Rain = 0
KCL2 120531Z 04009KT 07/M03 A3033 RMK A01 T00711027  RH  050%=      5-min Rain = 0
KCL2 120532Z 04009KT 07/M03 A3033 RMK A01 T00711027  RH  050%=      5-min Rain = 0
KCL2 120533Z 04009KT 07/M03 A3033 RMK A01 T00711026  RH  050%=      5-min Rain = 0
KCL2 120534Z 05010KT 07/M03 A3033 RMK A01 T00701027  RH  050%=      5-min Rain = 0
KCL2 120535Z 04010KT 07/M03 A3033 RMK A01 T00701027  RH  050%=      5-min Rain = 0
KCL2 120536Z 04008KT 07/M03 A3033 RMK A01 T00701027  RH  050%=      5-min Rain = 0
KCL2 120537Z 05009KT 07/M03 A3033 RMK A01 T00701027  RH  050%=      5-min Rain = 0
KCL2 120538Z 05008KT 07/M03 A3033 RMK A01 T00701027  RH  050%=      5-min Rain = 0
KCL2 120539Z 04009KT 07/M03 A3033 RMK A01 T00691026  RH  051%=      5-min Rain = 0
KCL2 120540Z 04008KT 07/M03 A3033 RMK A01 T00691027  RH  051%=      5-min Rain = 0
KCL2 120541Z 04009KT 07/M03 A3033 RMK A01 T00691026  RH  051%=      5-min Rain = 0
KCL2 120542Z 04008KT 07/M03 A3033 RMK A01 T00691026  RH  051%=      5-min Rain = 0
KCL2 120543Z 04009KT 07/M03 A3033 RMK A01 T00681026  RH  051%=      5-min Rain = 0
KCL2 120544Z 04009KT 07/M03 A3033 RMK A01 T00681026  RH  051%=      5-min Rain = 0
KCL2 120545Z 04008KT 07/M03 A3033 RMK A01 T00681026  RH  051%=      5-min Rain = 0
KCL2 120546Z 05008KT 07/M03 A3033 RMK A01 T00681026  RH  051%=      5-min Rain = 0
KCL2 120547Z 04009KT 07/M03 A3033 RMK A01 T00671026  RH  051%=      5-min Rain = 0
KCL2 120548Z 05009KT 07/M03 A3033 RMK A01 T00671027  RH  051%=      5-min Rain = 0
KCL2 120549Z 04009KT 07/M03 A3033 RMK A01 T00671026  RH  051%=      5-min Rain = 0
KCL2 120550Z 05009KT 07/M03 A3033 RMK A01 T00661027  RH  052%=      5-min Rain = 0
KCL2 120551Z 05009KT 07/M03 A3033 RMK A01 T00661026  RH  052%=      5-min Rain = 0
KCL2 120552Z 05009KT 07/M03 A3033 RMK A01 T00661026  RH  052%=      5-min Rain = 0
KCL2 120553Z 05008KT 07/M03 A3033 RMK A01 T00661027  RH  052%=      5-min Rain = 0
KCL2 120554Z 05008KT 07/M03 A3033 RMK A01 T00661027  RH  051%=      5-min Rain = 0
KCL2 120555Z 05008KT 07/M03 A3033 RMK A01 T00661026  RH  052%=      5-min Rain = 0
KCL2 120556Z 04007KT 07/M03 A3033 RMK A01 T00661026  RH  052%=      5-min Rain = 0
KCL2 120557Z 05008KT 07/M03 A3033 RMK A01 T00661026  RH  052%=      5-min Rain = 0
KCL2 120558Z 05007KT 07/M03 A3033 RMK A01 T00661027  RH  052%=      5-min Rain = 0
KCL2 120559Z 05008KT 07/M03 A3033 RMK A01 T00651027  RH  052%=      5-min Rain = 0
KCL2 120600Z 05008KT 07/M03 A3033 RMK A01 T00651027  RH  052%=      5-min Rain = 0
KCL2 120601Z 05008KT 07/M03 A3033 RMK A01 T00651026  RH  052%=      5-min Rain = 0
KCL2 120602Z 05008KT 07/M03 A3033 RMK A01 T00651026  RH  052%=      5-min Rain = 0
KCL2 120603Z 05007KT 07/M03 A3033 RMK A01 T00651026  RH  052%=      5-min Rain = 0
KCL2 120604Z 05009KT 06/M03 A3033 RMK A01 T00641026  RH  052%=      5-min Rain = 0
KCL2 120605Z 05009KT 06/M03 A3033 RMK A01 T00641026  RH  052%=      5-min Rain = 0
KCL2 120606Z 05008KT 07/M03 A3033 RMK A01 T00651026  RH  052%=      5-min Rain = 0
KCL2 120607Z 05008KT 06/M03 A3033 RMK A01 T00641026  RH  052%=      5-min Rain = 0
KCL2 120608Z 04009KT 06/M03 A3034 RMK A01 T00631026  RH  053%=      5-min Rain = 0
KCL2 120609Z 05008KT 06/M03 A3033 RMK A01 T00631026  RH  053%=      5-min Rain = 0
KCL2 120610Z 05009KT 06/M03 A3033 RMK A01 T00631026  RH  053%=      5-min Rain = 0
KCL2 120611Z 05008KT 06/M03 A3033 RMK A01 T00641026  RH  053%=      5-min Rain = 0
KCL2 120612Z 05008KT 06/M03 A3033 RMK A01 T00631026  RH  053%=      5-min Rain = 0
KCL2 120613Z 05008KT 06/M03 A3033 RMK A01 T00631026  RH  053%=      5-min Rain = 0
KCL2 120614Z 05007KT 06/M03 A3033 RMK A01 T00621026  RH  053%=      5-min Rain = 0
KCL2 120615Z 04007KT 06/M03 A3033 RMK A01 T00621026  RH  054%=      5-min Rain = 0
KCL2 120616Z 05008KT 06/M03 A3033 RMK A01 T00601026  RH  054%=      5-min Rain = 0
KCL2 120617Z 04008KT 06/M03 A3033 RMK A01 T00601026  RH  054%=      5-min Rain = 0
KCL2 120618Z 04008KT 06/M03 A3033 RMK A01 T00611025  RH  054%=      5-min Rain = 0
KCL2 120619Z 04008KT 06/M03 A3033 RMK A01 T00611025  RH  054%=      5-min Rain = 0
KCL2 120620Z 04007KT 06/M03 A3034 RMK A01 T00611025  RH  054%=      5-min Rain = 0
KCL2 120621Z 05007KT 06/M03 A3034 RMK A01 T00601025  RH  054%=      5-min Rain = 0
KCL2 120622Z 04007KT 06/M03 A3034 RMK A01 T00591025  RH  055%=      5-min Rain = 0
KCL2 120623Z 05007KT 06/M03 A3034 RMK A01 T00591025  RH  055%=      5-min Rain = 0
KCL2 120624Z 05007KT 06/M03 A3034 RMK A01 T00591025  RH  055%=      5-min Rain = 0
KCL2 120625Z 05007KT 06/M03 A3034 RMK A01 T00591025  RH  055%=      5-min Rain = 0
KCL2 120626Z 05007KT 06/M03 A3034 RMK A01 T00591025  RH  055%=      5-min Rain = 0
KCL2 120627Z 05007KT 06/M03 A3034 RMK A01 T00591025  RH  055%=      5-min Rain = 0
KCL2 120628Z 05007KT 06/M03 A3034 RMK A01 T00591025  RH  055%=      5-min Rain = 0
KCL2 120629Z 05007KT 06/M02 A3034 RMK A01 T00591024  RH  055%=      5-min Rain = 0
KCL2 120630Z 04007KT 06/M02 A3034 RMK A01 T00591024  RH  055%=      5-min Rain = 0
KCL2 120631Z 04008KT 06/M02 A3034 RMK A01 T00591024  RH  055%=      5-min Rain = 0
KCL2 120632Z 04007KT 06/M02 A3034 RMK A01 T00591024  RH  055%=      5-min Rain = 0
KCL2 120633Z 04008KT 06/M02 A3034 RMK A01 T00591024  RH  055%=      5-min Rain = 0
KCL2 120634Z 04009KT 06/M02 A3034 RMK A01 T00591024  RH  055%=      5-min Rain = 0
KCL2 120635Z 04007KT 06/M02 A3034 RMK A01 T00591024  RH  055%=      5-min Rain = 0
KCL2 120636Z 04007KT 06/M02 A3034 RMK A01 T00591024  RH  055%=      5-min Rain = 0
KCL2 120637Z 04006KT 06/M02 A3034 RMK A01 T00591024  RH  055%=      5-min Rain = 0
KCL2 120638Z 04006KT 06/M02 A3034 RMK A01 T00591024  RH  055%=      5-min Rain = 0
KCL2 120639Z 04006KT 06/M02 A3034 RMK A01 T00591023  RH  056%=      5-min Rain = 0
KCL2 120640Z 05006KT 06/M02 A3034 RMK A01 T00581024  RH  056%=      5-min Rain = 0
KCL2 120641Z 05006KT 06/M02 A3034 RMK A01 T00581024  RH  056%=      5-min Rain = 0
KCL2 120642Z 05007KT 06/M02 A3034 RMK A01 T00581024  RH  056%=      5-min Rain = 0
KCL2 120643Z 04006KT 06/M02 A3034 RMK A01 T00571024  RH  056%=      5-min Rain = 0
KCL2 120644Z 05007KT 06/M02 A3034 RMK A01 T00581024  RH  056%=      5-min Rain = 0
KCL2 120645Z 04007KT 06/M02 A3034 RMK A01 T00581023  RH  056%=      5-min Rain = 0
KCL2 120646Z 05007KT 06/M02 A3034 RMK A01 T00571023  RH  056%=      5-min Rain = 0
KCL2 120647Z 05007KT 06/M02 A3034 RMK A01 T00571024  RH  056%=      5-min Rain = 0
KCL2 120648Z 04007KT 06/M02 A3034 RMK A01 T00571024  RH  056%=      5-min Rain = 0
KCL2 120649Z 04007KT 06/M02 A3034 RMK A01 T00561023  RH  057%=      5-min Rain = 0
KCL2 120650Z 04007KT 06/M02 A3034 RMK A01 T00551024  RH  057%=      5-min Rain = 0
KCL2 120651Z 04007KT 06/M02 A3034 RMK A01 T00551023  RH  057%=      5-min Rain = 0
KCL2 120652Z 05007KT 06/M02 A3034 RMK A01 T00551023  RH  057%=      5-min Rain = 0
KCL2 120653Z 04007KT 06/M02 A3034 RMK A01 T00551023  RH  057%=      5-min Rain = 0
KCL2 120654Z 04009KT 06/M02 A3034 RMK A01 T00551023  RH  057%=      5-min Rain = 0
KCL2 120655Z 04008KT 06/M02 A3034 RMK A01 T00551023  RH  057%=      5-min Rain = 0
KCL2 120656Z 04008KT 06/M02 A3034 RMK A01 T00551023  RH  057%=      5-min Rain = 0
KCL2 120657Z 04009KT 06/M02 A3034 RMK A01 T00551023  RH  057%=      5-min Rain = 0
KCL2 120658Z 04008KT 06/M02 A3034 RMK A01 T00561023  RH  057%=      5-min Rain = 0
KCL2 120659Z 05008KT 06/M02 A3034 RMK A01 T00561023  RH  057%=      5-min Rain = 0
KCL2 120700Z 05007KT 06/M02 A3034 RMK A01 T00561023  RH  057%=      5-min Rain = 0
KCL2 120701Z 04007KT 06/M02 A3034 RMK A01 T00561023  RH  057%=      5-min Rain = 0
KCL2 120702Z 04008KT 06/M02 A3034 RMK A01 T00561023  RH  057%=      5-min Rain = 0
KCL2 120703Z 04008KT 06/M02 A3034 RMK A01 T00561023  RH  057%=      5-min Rain = 0
KCL2 120704Z 04009KT 06/M02 A3034 RMK A01 T00561023  RH  057%=      5-min Rain = 0
KCL2 120705Z 04008KT 06/M02 A3033 RMK A01 T00561023  RH  057%=      5-min Rain = 0
KCL2 120706Z 04008KT 06/M02 A3033 RMK A01 T00561022  RH  057%=      5-min Rain = 0
KCL2 120707Z 04008KT 06/M02 A3033 RMK A01 T00551022  RH  057%=      5-min Rain = 0
KCL2 120708Z 04008KT 06/M02 A3033 RMK A01 T00551023  RH  057%=      5-min Rain = 0
KCL2 120709Z 04008KT 05/M02 A3034 RMK A01 T00541022  RH  058%=      5-min Rain = 0
KCL2 120710Z 04009KT 05/M02 A3034 RMK A01 T00541022  RH  058%=      5-min Rain = 0
KCL2 120711Z 04008KT 06/M02 A3034 RMK A01 T00551022  RH  058%=      5-min Rain = 0
KCL2 120712Z 04008KT 06/M02 A3034 RMK A01 T00551022  RH  058%=      5-min Rain = 0
KCL2 120713Z 04008KT 06/M02 A3034 RMK A01 T00551022  RH  058%=      5-min Rain = 0
KCL2 120714Z 04008KT 06/M02 A3034 RMK A01 T00551023  RH  057%=      5-min Rain = 0
KCL2 120715Z 04008KT 06/M02 A3034 RMK A01 T00551023  RH  057%=      5-min Rain = 0
KCL2 120716Z 04008KT 06/M02 A3034 RMK A01 T00561022  RH  057%=      5-min Rain = 0
KCL2 120717Z 05008KT 06/M02 A3034 RMK A01 T00551022  RH  057%=      5-min Rain = 0
KCL2 120718Z 05008KT 06/M02 A3034 RMK A01 T00551022  RH  058%=      5-min Rain = 0
KCL2 120719Z 04008KT 06/M02 A3034 RMK A01 T00551022  RH  058%=      5-min Rain = 0
KCL2 120720Z 05007KT 06/M02 A3034 RMK A01 T00551022  RH  058%=      5-min Rain = 0
KCL2 120721Z 04009KT 05/M02 A3034 RMK A01 T00541022  RH  058%=      5-min Rain = 0
KCL2 120722Z 05008KT 05/M02 A3034 RMK A01 T00541022  RH  058%=      5-min Rain = 0
KCL2 120723Z 05009KT 05/M02 A3034 RMK A01 T00541022  RH  058%=      5-min Rain = 0
KCL2 120724Z 05008KT 05/M02 A3034 RMK A01 T00541022  RH  058%=      5-min Rain = 0
KCL2 120725Z 05008KT 05/M02 A3034 RMK A01 T00541022  RH  058%=      5-min Rain = 0
KCL2 120726Z 05008KT 05/M02 A3034 RMK A01 T00531022  RH  058%=      5-min Rain = 0
KCL2 120727Z 05008KT 05/M02 A3034 RMK A01 T00531022  RH  058%=      5-min Rain = 0
KCL2 120728Z 04009KT 05/M02 A3034 RMK A01 T00531022  RH  058%=      5-min Rain = 0
KCL2 120729Z 05008KT 05/M02 A3034 RMK A01 T00531022  RH  058%=      5-min Rain = 0
KCL2 120730Z 05008KT 05/M02 A3034 RMK A01 T00531022  RH  058%=      5-min Rain = 0
KCL2 120731Z 05008KT 05/M02 A3034 RMK A01 T00531022  RH  058%=      5-min Rain = 0
KCL2 120732Z 05007KT 05/M02 A3034 RMK A01 T00521022  RH  059%=      5-min Rain = 0
KCL2 120733Z 05008KT 05/M02 A3034 RMK A01 T00511022  RH  059%=      5-min Rain = 0
KCL2 120734Z 05007KT 05/M02 A3034 RMK A01 T00501022  RH  059%=      5-min Rain = 0
KCL2 120735Z 05008KT 05/M02 A3034 RMK A01 T00511022  RH  059%=      5-min Rain = 0
KCL2 120736Z 05008KT 05/M02 A3034 RMK A01 T00511022  RH  059%=      5-min Rain = 0
KCL2 120737Z 05008KT 05/M02 A3034 RMK A01 T00501022  RH  060%=      5-min Rain = 0
KCL2 120738Z 04010KT 05/M02 A3034 RMK A01 T00501022  RH  060%=      5-min Rain = 0
KCL2 120739Z 04008KT 05/M02 A3034 RMK A01 T00501022  RH  060%=      5-min Rain = 0
KCL2 120740Z 04009KT 05/M02 A3034 RMK A01 T00501022  RH  060%=      5-min Rain = 0
KCL2 120741Z 05009KT 05/M02 A3034 RMK A01 T00501022  RH  060%=      5-min Rain = 0
KCL2 120742Z 05008KT 05/M02 A3034 RMK A01 T00501022  RH  060%=      5-min Rain = 0
KCL2 120743Z 05009KT 05/M02 A3034 RMK A01 T00501022  RH  060%=      5-min Rain = 0
KCL2 120744Z 04009KT 05/M02 A3034 RMK A01 T00501022  RH  060%=      5-min Rain = 0
KCL2 120745Z 04009KT 05/M02 A3034 RMK A01 T00491022  RH  060%=      5-min Rain = 0
KCL2 120746Z 05009KT 05/M02 A3034 RMK A01 T00491022  RH  060%=      5-min Rain = 0
KCL2 120747Z 04009KT 05/M02 A3033 RMK A01 T00491022  RH  060%=      5-min Rain = 0
KCL2 120748Z 04009KT 05/M02 A3033 RMK A01 T00491022  RH  060%=      5-min Rain = 0
KCL2 120749Z 05009KT 05/M02 A3033 RMK A01 T00491022  RH  060%=      5-min Rain = 0
KCL2 120750Z 05010KT 05/M02 A3033 RMK A01 T00491022  RH  060%=      5-min Rain = 0
KCL2 120751Z 05009KT 05/M02 A3033 RMK A01 T00491021  RH  060%=      5-min Rain = 0
KCL2 120752Z 05009KT 05/M02 A3033 RMK A01 T00491021  RH  060%=      5-min Rain = 0
KCL2 120753Z 05010KT 05/M02 A3033 RMK A01 T00491021  RH  060%=      5-min Rain = 0
KCL2 120754Z 05010KT 05/M02 A3033 RMK A01 T00491022  RH  060%=      5-min Rain = 0
KCL2 120755Z 05009KT 05/M02 A3033 RMK A01 T00491021  RH  060%=      5-min Rain = 0
KCL2 120756Z 05009KT 05/M02 A3033 RMK A01 T00481021  RH  061%=      5-min Rain = 0
KCL2 120757Z 05009KT 05/M02 A3033 RMK A01 T00471022  RH  061%=      5-min Rain = 0
KCL2 120758Z 05009KT 05/M02 A3033 RMK A01 T00471022  RH  061%=      5-min Rain = 0
KCL2 120759Z 05008KT 05/M02 A3033 RMK A01 T00471021  RH  061%=      5-min Rain = 0
KCL2 120800Z 05008KT 05/M02 A3033 RMK A01 T00461022  RH  061%=      5-min Rain = 0
KCL2 120801Z 05009KT 05/M02 A3033 RMK A01 T00461022  RH  062%=      5-min Rain = 0
KCL2 120802Z 04008KT 05/M02 A3033 RMK A01 T00451022  RH  062%=      5-min Rain = 0
KCL2 120803Z 05009KT 05/M02 A3033 RMK A01 T00451022  RH  062%=      5-min Rain = 0
KCL2 120804Z 05009KT 05/M02 A3033 RMK A01 T00451021  RH  062%=      5-min Rain = 0
KCL2 120805Z 04009KT 05/M02 A3033 RMK A01 T00451021  RH  062%=      5-min Rain = 0
KCL2 120806Z 04010KT 05/M02 A3033 RMK A01 T00451022  RH  062%=      5-min Rain = 0
KCL2 120807Z 04009KT 05/M02 A3033 RMK A01 T00451022  RH  062%=      5-min Rain = 0
KCL2 120808Z 04009KT 05/M02 A3033 RMK A01 T00451021  RH  062%=      5-min Rain = 0
KCL2 120809Z 04009KT 05/M02 A3033 RMK A01 T00451021  RH  062%=      5-min Rain = 0
KCL2 120810Z 04009KT 04/M02 A3033 RMK A01 T00441021  RH  062%=      5-min Rain = 0
KCL2 120811Z 04009KT 04/M02 A3033 RMK A01 T00441021  RH  063%=      5-min Rain = 0
KCL2 120812Z 04009KT 04/M02 A3033 RMK A01 T00441021  RH  062%=      5-min Rain = 0
KCL2 120813Z 04009KT 04/M02 A3033 RMK A01 T00441021  RH  062%=      5-min Rain = 0
KCL2 120814Z 04010KT 04/M02 A3033 RMK A01 T00441021  RH  062%=      5-min Rain = 0
KCL2 120815Z 04009KT 04/M02 A3033 RMK A01 T00441021  RH  063%=      5-min Rain = 0
KCL2 120816Z 04010KT 04/M02 A3033 RMK A01 T00441021  RH  063%=      5-min Rain = 0
KCL2 120817Z 05010KT 05/M02 A3033 RMK A01 T00451021  RH  063%=      5-min Rain = 0
KCL2 120818Z 04010KT 05/M02 A3033 RMK A01 T00451021  RH  062%=      5-min Rain = 0
KCL2 120819Z 05010KT 05/M02 A3033 RMK A01 T00451021  RH  062%=      5-min Rain = 0
KCL2 120820Z 05009KT 05/M02 A3033 RMK A01 T00451021  RH  062%=      5-min Rain = 0
KCL2 120821Z 04010KT 05/M02 A3033 RMK A01 T00451021  RH  062%=      5-min Rain = 0
KCL2 120822Z 04011KT 05/M02 A3033 RMK A01 T00451021  RH  062%=      5-min Rain = 0
KCL2 120823Z 05010KT 05/M02 A3033 RMK A01 T00461021  RH  062%=      5-min Rain = 0
KCL2 120824Z 04010KT 05/M02 A3033 RMK A01 T00461021  RH  062%=      5-min Rain = 0
KCL2 120825Z 05012KT 05/M02 A3033 RMK A01 T00461021  RH  062%=      5-min Rain = 0
KCL2 120826Z 04010KT 05/M02 A3033 RMK A01 T00461020  RH  062%=      5-min Rain = 0
KCL2 120827Z 05010KT 05/M02 A3033 RMK A01 T00461020  RH  062%=      5-min Rain = 0
KCL2 120828Z 05010KT 05/M02 A3033 RMK A01 T00461020  RH  062%=      5-min Rain = 0
KCL2 120829Z 05010KT 05/M02 A3033 RMK A01 T00461020  RH  062%=      5-min Rain = 0
KCL2 120830Z 04011KT 05/M02 A3033 RMK A01 T00471020  RH  062%=      5-min Rain = 0
KCL2 120831Z 05010KT 05/M02 A3033 RMK A01 T00461020  RH  062%=      5-min Rain = 0
KCL2 120832Z 05010KT 05/M02 A3033 RMK A01 T00461020  RH  062%=      5-min Rain = 0
KCL2 120833Z 05010KT 05/M02 A3033 RMK A01 T00471020  RH  062%=      5-min Rain = 0
KCL2 120834Z 05012KT 05/M02 A3032 RMK A01 T00461020  RH  062%=      5-min Rain = 0
KCL2 120835Z 05012KT 05/M02 A3032 RMK A01 T00471019  RH  062%=      5-min Rain = 0
KCL2 120836Z 05011KT 05/M02 A3032 RMK A01 T00471019  RH  062%=      5-min Rain = 0
KCL2 120837Z 05013KT 05/M02 A3032 RMK A01 T00471019  RH  062%=      5-min Rain = 0
KCL2 120838Z 05013KT 05/M02 A3032 RMK A01 T00471019  RH  062%=      5-min Rain = 0
KCL2 120839Z 05013KT 05/M02 A3032 RMK A01 T00471019  RH  062%=      5-min Rain = 0
KCL2 120840Z 05013KT 05/M02 A3032 RMK A01 T00471019  RH  062%=      5-min Rain = 0
KCL2 120841Z 05011KT 05/M02 A3032 RMK A01 T00471019  RH  062%=      5-min Rain = 0
KCL2 120842Z 04010KT 05/M02 A3032 RMK A01 T00471019  RH  063%=      5-min Rain = 0
KCL2 120843Z 05011KT 05/M02 A3032 RMK A01 T00461019  RH  063%=      5-min Rain = 0
KCL2 120844Z 05011KT 05/M02 A3032 RMK A01 T00451019  RH  063%=      5-min Rain = 0
KCL2 120845Z 04010KT 05/M02 A3032 RMK A01 T00451019  RH  063%=      5-min Rain = 0
KCL2 120846Z 05010KT 05/M02 A3032 RMK A01 T00451019  RH  063%=      5-min Rain = 0
KCL2 120847Z 05010KT 05/M02 A3032 RMK A01 T00451019  RH  063%=      5-min Rain = 0
KCL2 120848Z 05010KT 04/M02 A3032 RMK A01 T00441019  RH  063%=      5-min Rain = 0
KCL2 120849Z 05010KT 04/M02 A3032 RMK A01 T00441019  RH  064%=      5-min Rain = 0
KCL2 120850Z 05010KT 04/M02 A3032 RMK A01 T00441019  RH  064%=      5-min Rain = 0
KCL2 120851Z 05011KT 04/M02 A3032 RMK A01 T00441019  RH  064%=      5-min Rain = 0
KCL2 120852Z 05012KT 04/M02 A3032 RMK A01 T00441019  RH  064%=      5-min Rain = 0
KCL2 120853Z 05009KT 04/M02 A3032 RMK A01 T00441019  RH  064%=      5-min Rain = 0
KCL2 120854Z 05011KT 04/M02 A3032 RMK A01 T00431019  RH  064%=      5-min Rain = 0
KCL2 120855Z 05010KT 04/M02 A3032 RMK A01 T00431019  RH  064%=      5-min Rain = 0
KCL2 120856Z 05009KT 04/M02 A3032 RMK A01 T00421019  RH  064%=      5-min Rain = 0
KCL2 120857Z 05010KT 04/M02 A3032 RMK A01 T00411019  RH  065%=      5-min Rain = 0
KCL2 120858Z 05011KT 04/M02 A3032 RMK A01 T00411019  RH  065%=      5-min Rain = 0
KCL2 120859Z 04010KT 04/M02 A3032 RMK A01 T00411019  RH  065%=      5-min Rain = 0
KCL2 120900Z 04010KT 04/M02 A3031 RMK A01 T00411019  RH  065%=      5-min Rain = 0
KCL2 120901Z 05010KT 04/M02 A3031 RMK A01 T00411019  RH  065%=      5-min Rain = 0
KCL2 120902Z 05011KT 04/M02 A3032 RMK A01 T00411019  RH  065%=      5-min Rain = 0
KCL2 120903Z 05010KT 04/M02 A3032 RMK A01 T00411019  RH  065%=      5-min Rain = 0
KCL2 120904Z 05010KT 04/M02 A3032 RMK A01 T00401019  RH  065%=      5-min Rain = 0
KCL2 120905Z 04011KT 04/M02 A3032 RMK A01 T00391019  RH  066%=      5-min Rain = 0
KCL2 120906Z 05011KT 04/M02 A3031 RMK A01 T00391019  RH  066%=      5-min Rain = 0
KCL2 120907Z 04010KT 04/M02 A3031 RMK A01 T00391019  RH  066%=      5-min Rain = 0
KCL2 120908Z 05011KT 04/M02 A3031 RMK A01 T00391019  RH  066%=      5-min Rain = 0
KCL2 120909Z 05010KT 04/M02 A3031 RMK A01 T00391019  RH  066%=      5-min Rain = 0
KCL2 120910Z 05009KT 04/M02 A3032 RMK A01 T00391019  RH  066%=      5-min Rain = 0
KCL2 120911Z 04009KT 04/M02 A3032 RMK A01 T00391019  RH  066%=      5-min Rain = 0
KCL2 120912Z 05009KT 04/M02 A3032 RMK A01 T00381019  RH  066%=      5-min Rain = 0
KCL2 120913Z 04008KT 04/M02 A3032 RMK A01 T00371019  RH  066%=      5-min Rain = 0
KCL2 120914Z 04008KT 04/M02 A3032 RMK A01 T00371019  RH  067%=      5-min Rain = 0
KCL2 120915Z 05009KT 04/M02 A3032 RMK A01 T00371019  RH  067%=      5-min Rain = 0
KCL2 120916Z 04010KT 04/M02 A3032 RMK A01 T00371019  RH  067%=      5-min Rain = 0
KCL2 120917Z 05009KT 04/M02 A3032 RMK A01 T00371019  RH  067%=      5-min Rain = 0
KCL2 120918Z 05009KT 04/M02 A3032 RMK A01 T00371019  RH  067%=      5-min Rain = 0
KCL2 120919Z 05009KT 04/M02 A3032 RMK A01 T00381019  RH  066%=      5-min Rain = 0
KCL2 120920Z 05009KT 04/M02 A3032 RMK A01 T00381019  RH  066%=      5-min Rain = 0
KCL2 120921Z 05009KT 04/M02 A3032 RMK A01 T00381019  RH  066%=      5-min Rain = 0
KCL2 120922Z 05008KT 04/M02 A3032 RMK A01 T00381019  RH  066%=      5-min Rain = 0
KCL2 120923Z 05008KT 04/M02 A3032 RMK A01 T00371019  RH  067%=      5-min Rain = 0
KCL2 120924Z 05009KT 04/M02 A3032 RMK A01 T00371019  RH  067%=      5-min Rain = 0
KCL2 120925Z 05009KT 04/M02 A3032 RMK A01 T00371019  RH  067%=      5-min Rain = 0
KCL2 120926Z 04010KT 04/M02 A3032 RMK A01 T00371019  RH  067%=      5-min Rain = 0
KCL2 120927Z 05010KT 04/M02 A3032 RMK A01 T00371019  RH  067%=      5-min Rain = 0
KCL2 120928Z 05009KT 04/M02 A3032 RMK A01 T00371019  RH  067%=      5-min Rain = 0
KCL2 120929Z 04008KT 04/M02 A3032 RMK A01 T00371019  RH  067%=      5-min Rain = 0
KCL2 120930Z 04008KT 04/M02 A3032 RMK A01 T00361019  RH  067%=      5-min Rain = 0
KCL2 120931Z 04008KT 04/M02 A3032 RMK A01 T00351020  RH  068%=      5-min Rain = 0
KCL2 120932Z 04008KT 04/M02 A3032 RMK A01 T00351019  RH  068%=      5-min Rain = 0
KCL2 120933Z 04006KT 03/M02 A3032 RMK A01 T00341020  RH  068%=      5-min Rain = 0
KCL2 120934Z 04008KT 03/M02 A3032 RMK A01 T00331020  RH  068%=      5-min Rain = 0
KCL2 120935Z 04008KT 03/M02 A3032 RMK A01 T00331019  RH  069%=      5-min Rain = 0
KCL2 120936Z 04009KT 03/M02 A3032 RMK A01 T00331019  RH  068%=      5-min Rain = 0
KCL2 120937Z 04007KT 03/M02 A3032 RMK A01 T00331019  RH  068%=      5-min Rain = 0
KCL2 120938Z 04008KT 03/M02 A3033 RMK A01 T00331020  RH  068%=      5-min Rain = 0
KCL2 120939Z 05008KT 03/M02 A3033 RMK A01 T00331019  RH  068%=      5-min Rain = 0
KCL2 120940Z 04009KT 03/M02 A3033 RMK A01 T00331020  RH  068%=      5-min Rain = 0
KCL2 120941Z 04008KT 03/M02 A3033 RMK A01 T00341020  RH  068%=      5-min Rain = 0
KCL2 120942Z 04008KT 04/M02 A3033 RMK A01 T00351020  RH  067%=      5-min Rain = 0
KCL2 120943Z 04007KT 04/M02 A3033 RMK A01 T00351020  RH  067%=      5-min Rain = 0
KCL2 120944Z 04007KT 03/M02 A3033 RMK A01 T00341020  RH  067%=      5-min Rain = 0
KCL2 120945Z 05007KT 03/M02 A3033 RMK A01 T00331020  RH  068%=      5-min Rain = 0
KCL2 120946Z 04008KT 03/M02 A3033 RMK A01 T00331020  RH  068%=      5-min Rain = 0
KCL2 120947Z 05008KT 03/M02 A3033 RMK A01 T00341020  RH  068%=      5-min Rain = 0
KCL2 120948Z 04007KT 03/M02 A3033 RMK A01 T00341020  RH  068%=      5-min Rain = 0
KCL2 120949Z 04008KT 03/M02 A3033 RMK A01 T00341020  RH  068%=      5-min Rain = 0
KCL2 120950Z 04008KT 03/M02 A3033 RMK A01 T00331020  RH  068%=      5-min Rain = 0
KCL2 120951Z 04007KT 03/M02 A3033 RMK A01 T00331020  RH  068%=      5-min Rain = 0
KCL2 120952Z 04006KT 03/M02 A3033 RMK A01 T00331021  RH  068%=      5-min Rain = 0
KCL2 120953Z 04006KT 03/M02 A3033 RMK A01 T00311021  RH  068%=      5-min Rain = 0
KCL2 120954Z 04006KT 03/M02 A3033 RMK A01 T00311021  RH  069%=      5-min Rain = 0
KCL2 120955Z 04007KT 03/M02 A3033 RMK A01 T00301021  RH  069%=      5-min Rain = 0
KCL2 120956Z 04006KT 03/M02 A3033 RMK A01 T00301021  RH  069%=      5-min Rain = 0
KCL2 120957Z 04007KT 03/M02 A3033 RMK A01 T00301020  RH  069%=      5-min Rain = 0
KCL2 120958Z 04006KT 03/M02 A3033 RMK A01 T00311020  RH  069%=      5-min Rain = 0
KCL2 120959Z 04007KT 03/M02 A3033 RMK A01 T00311020  RH  069%=      5-min Rain = 0
KCL2 121000Z 04006KT 03/M02 A3033 RMK A01 T00311020  RH  069%=      5-min Rain = 0
KCL2 121001Z 04006KT 03/M02 A3033 RMK A01 T00311020  RH  069%=      5-min Rain = 0
KCL2 121002Z 04006KT 03/M02 A3033 RMK A01 T00311020  RH  069%=      5-min Rain = 0
KCL2 121003Z 04007KT 03/M02 A3033 RMK A01 T00311020  RH  069%=      5-min Rain = 0
KCL2 121004Z 04007KT 03/M02 A3033 RMK A01 T00311020  RH  069%=      5-min Rain = 0
KCL2 121005Z 04007KT 03/M02 A3033 RMK A01 T00311020  RH  069%=      5-min Rain = 0
KCL2 121006Z 04007KT 03/M02 A3033 RMK A01 T00311020  RH  069%=      5-min Rain = 0
KCL2 121007Z 04007KT 03/M02 A3033 RMK A01 T00321020  RH  069%=      5-min Rain = 0
KCL2 121008Z 04008KT 03/M02 A3033 RMK A01 T00331019  RH  069%=      5-min Rain = 0
KCL2 121009Z 04008KT 03/M02 A3033 RMK A01 T00331019  RH  068%=      5-min Rain = 0
KCL2 121010Z 05008KT 03/M02 A3033 RMK A01 T00331020  RH  068%=      5-min Rain = 0
KCL2 121011Z 04007KT 03/M02 A3033 RMK A01 T00341020  RH  068%=      5-min Rain = 0
KCL2 121012Z 04008KT 03/M02 A3033 RMK A01 T00341020  RH  068%=      5-min Rain = 0
KCL2 121013Z 04009KT 03/M02 A3033 RMK A01 T00341020  RH  068%=      5-min Rain = 0
KCL2 121014Z 04008KT 03/M02 A3033 RMK A01 T00341020  RH  068%=      5-min Rain = 0
KCL2 121015Z 04009KT 03/M02 A3033 RMK A01 T00341020  RH  068%=      5-min Rain = 0
KCL2 121016Z 05010KT 03/M02 A3033 RMK A01 T00341019  RH  068%=      5-min Rain = 0
KCL2 121017Z 05009KT 04/M02 A3033 RMK A01 T00351019  RH  068%=      5-min Rain = 0
KCL2 121018Z 05009KT 04/M02 A3033 RMK A01 T00351019  RH  068%=      5-min Rain = 0
KCL2 121019Z 04011KT 04/M02 A3033 RMK A01 T00351019  RH  068%=      5-min Rain = 0
KCL2 121020Z 04011KT 04/M02 A3033 RMK A01 T00351019  RH  068%=      5-min Rain = 0
KCL2 121021Z 04009KT 04/M02 A3033 RMK A01 T00351018  RH  068%=      5-min Rain = 0
KCL2 121022Z 04009KT 04/M02 A3033 RMK A01 T00351019  RH  068%=      5-min Rain = 0
KCL2 121023Z 05011KT 04/M02 A3033 RMK A01 T00351019  RH  068%=      5-min Rain = 0
KCL2 121024Z 04009KT 04/M02 A3033 RMK A01 T00361019  RH  068%=      5-min Rain = 0
KCL2 121025Z 04010KT 04/M02 A3033 RMK A01 T00361019  RH  068%=      5-min Rain = 0
KCL2 121026Z 04009KT 04/M02 A3033 RMK A01 T00361019  RH  067%=      5-min Rain = 0
KCL2 121027Z 04008KT 04/M02 A3033 RMK A01 T00361019  RH  067%=      5-min Rain = 0
KCL2 121028Z 05010KT 04/M02 A3033 RMK A01 T00361019  RH  068%=      5-min Rain = 0
KCL2 121029Z 04009KT 04/M02 A3033 RMK A01 T00361019  RH  068%=      5-min Rain = 0
KCL2 121030Z 04009KT 04/M02 A3033 RMK A01 T00361019  RH  067%=      5-min Rain = 0
KCL2 121031Z 05009KT 04/M02 A3033 RMK A01 T00361019  RH  067%=      5-min Rain = 0
KCL2 121032Z 05009KT 04/M02 A3033 RMK A01 T00361018  RH  068%=      5-min Rain = 0
KCL2 121033Z 04011KT 04/M02 A3033 RMK A01 T00361018  RH  068%=      5-min Rain = 0
KCL2 121034Z 04010KT 04/M02 A3033 RMK A01 T00361019  RH  067%=      5-min Rain = 0
KCL2 121035Z 04009KT 04/M02 A3033 RMK A01 T00361018  RH  067%=      5-min Rain = 0
KCL2 121036Z 04010KT 04/M02 A3034 RMK A01 T00361019  RH  067%=      5-min Rain = 0
KCL2 121037Z 05010KT 04/M02 A3034 RMK A01 T00361019  RH  067%=      5-min Rain = 0
KCL2 121038Z 04009KT 04/M02 A3034 RMK A01 T00361019  RH  067%=      5-min Rain = 0
KCL2 121039Z 04009KT 04/M02 A3034 RMK A01 T00361019  RH  067%=      5-min Rain = 0
KCL2 121040Z 04008KT 04/M02 A3034 RMK A01 T00361019  RH  067%=      5-min Rain = 0
KCL2 121041Z 04008KT 04/M02 A3034 RMK A01 T00361018  RH  068%=      5-min Rain = 0
KCL2 121042Z 04008KT 04/M02 A3034 RMK A01 T00351018  RH  068%=      5-min Rain = 0
KCL2 121043Z 05009KT 04/M02 A3034 RMK A01 T00351018  RH  068%=      5-min Rain = 0
KCL2 121044Z 04010KT 04/M02 A3034 RMK A01 T00351018  RH  068%=      5-min Rain = 0
KCL2 121045Z 04009KT 04/M02 A3034 RMK A01 T00351019  RH  068%=      5-min Rain = 0
KCL2 121046Z 04009KT 04/M02 A3034 RMK A01 T00361019  RH  067%=      5-min Rain = 0
KCL2 121047Z 04008KT 04/M02 A3034 RMK A01 T00361019  RH  067%=      5-min Rain = 0
KCL2 121048Z 05008KT 04/M02 A3034 RMK A01 T00361018  RH  068%=      5-min Rain = 0
KCL2 121049Z 05007KT 04/M02 A3034 RMK A01 T00361019  RH  068%=      5-min Rain = 0
KCL2 121050Z 04009KT 04/M02 A3034 RMK A01 T00351019  RH  068%=      5-min Rain = 0
KCL2 121051Z 04009KT 04/M02 A3034 RMK A01 T00351019  RH  068%=      5-min Rain = 0
KCL2 121052Z 04009KT 04/M02 A3034 RMK A01 T00351019  RH  068%=      5-min Rain = 0
KCL2 121053Z 04010KT 04/M02 A3034 RMK A01 T00351019  RH  067%=      5-min Rain = 0
KCL2 121054Z 05010KT 04/M02 A3034 RMK A01 T00351019  RH  067%=      5-min Rain = 0
KCL2 121055Z 04010KT 04/M02 A3034 RMK A01 T00361019  RH  067%=      5-min Rain = 0
KCL2 121056Z 04010KT 04/M02 A3034 RMK A01 T00361019  RH  067%=      5-min Rain = 0
KCL2 121057Z 04009KT 04/M02 A3034 RMK A01 T00361019  RH  067%=      5-min Rain = 0
KCL2 121058Z 04010KT 04/M02 A3034 RMK A01 T00361019  RH  067%=      5-min Rain = 0
KCL2 121059Z 04010KT 04/M02 A3034 RMK A01 T00361019  RH  067%=      5-min Rain = 0
KCL2 121100Z 04008KT 04/M02 A3034 RMK A01 T00361019  RH  067%=      5-min Rain = 0
KCL2 121101Z 04009KT 04/M02 A3034 RMK A01 T00361019  RH  067%=      5-min Rain = 0
KCL2 121102Z 04008KT 04/M02 A3034 RMK A01 T00361019  RH  067%=      5-min Rain = 0
KCL2 121103Z 04009KT 04/M02 A3034 RMK A01 T00351019  RH  068%=      5-min Rain = 0
KCL2 121104Z 04010KT 04/M02 A3034 RMK A01 T00351019  RH  068%=      5-min Rain = 0
KCL2 121105Z 04008KT 04/M02 A3034 RMK A01 T00351019  RH  067%=      5-min Rain = 0
KCL2 121106Z 04009KT 04/M02 A3034 RMK A01 T00351019  RH  067%=      5-min Rain = 0
KCL2 121107Z 04009KT 04/M02 A3034 RMK A01 T00351019  RH  067%=      5-min Rain = 0
KCL2 121108Z 04009KT 04/M02 A3035 RMK A01 T00351020  RH  067%=      5-min Rain = 0
KCL2 121109Z 05007KT 04/M02 A3035 RMK A01 T00351019  RH  067%=      5-min Rain = 0
KCL2 121110Z 04007KT 04/M02 A3035 RMK A01 T00351019  RH  068%=      5-min Rain = 0
KCL2 121111Z 04007KT 04/M02 A3035 RMK A01 T00351019  RH  068%=      5-min Rain = 0
KCL2 121112Z 04008KT 03/M02 A3034 RMK A01 T00341019  RH  068%=      5-min Rain = 0
KCL2 121113Z 04009KT 03/M02 A3034 RMK A01 T00341019  RH  068%=      5-min Rain = 0
KCL2 121114Z 04009KT 03/M02 A3034 RMK A01 T00341019  RH  068%=      5-min Rain = 0
KCL2 121115Z 05010KT 03/M02 A3035 RMK A01 T00341019  RH  068%=      5-min Rain = 0
KCL2 121116Z 04009KT 04/M02 A3035 RMK A01 T00351019  RH  068%=      5-min Rain = 0
KCL2 121117Z 04008KT 04/M02 A3035 RMK A01 T00351019  RH  068%=      5-min Rain = 0
KCL2 121118Z 04008KT 04/M02 A3035 RMK A01 T00351019  RH  068%=      5-min Rain = 0
KCL2 121119Z 04009KT 04/M02 A3035 RMK A01 T00351019  RH  068%=      5-min Rain = 0
KCL2 121120Z 05009KT 04/M02 A3035 RMK A01 T00351019  RH  068%=      5-min Rain = 0
KCL2 121121Z 05008KT 04/M02 A3035 RMK A01 T00351019  RH  068%=      5-min Rain = 0
KCL2 121122Z 04008KT 04/M02 A3035 RMK A01 T00351019  RH  068%=      5-min Rain = 0
KCL2 121123Z 04007KT 03/M02 A3035 RMK A01 T00341019  RH  068%=      5-min Rain = 0
KCL2 121124Z 05008KT 04/M02 A3035 RMK A01 T00351019  RH  068%=      5-min Rain = 0
KCL2 121125Z 04007KT 04/M02 A3035 RMK A01 T00351019  RH  068%=      5-min Rain = 0
KCL2 121126Z 04007KT 04/M02 A3035 RMK A01 T00351019  RH  068%=      5-min Rain = 0
KCL2 121127Z 04009KT 03/M02 A3035 RMK A01 T00341019  RH  068%=      5-min Rain = 0
KCL2 121128Z 04007KT 03/M02 A3035 RMK A01 T00341019  RH  068%=      5-min Rain = 0
KCL2 121129Z 04007KT 03/M02 A3035 RMK A01 T00341019  RH  068%=      5-min Rain = 0
KCL2 121130Z 04008KT 03/M02 A3035 RMK A01 T00341019  RH  068%=      5-min Rain = 0
KCL2 121131Z 04008KT 03/M02 A3035 RMK A01 T00331019  RH  068%=      5-min Rain = 0
KCL2 121132Z 04007KT 03/M02 A3035 RMK A01 T00341019  RH  068%=      5-min Rain = 0
KCL2 121133Z 04006KT 03/M02 A3036 RMK A01 T00341019  RH  068%=      5-min Rain = 0
KCL2 121134Z 04008KT 03/M02 A3036 RMK A01 T00341019  RH  068%=      5-min Rain = 0
KCL2 121135Z 04007KT 03/M02 A3036 RMK A01 T00341019  RH  068%=      5-min Rain = 0
KCL2 121136Z 03008KT 03/M02 A3036 RMK A01 T00331019  RH  068%=      5-min Rain = 0
KCL2 121137Z 03006KT 03/M02 A3036 RMK A01 T00331019  RH  068%=      5-min Rain = 0
KCL2 121138Z 04007KT 03/M02 A3036 RMK A01 T00341019  RH  069%=      5-min Rain = 0
KCL2 121139Z 03007KT 03/M02 A3036 RMK A01 T00331019  RH  069%=      5-min Rain = 0
KCL2 121140Z 03006KT 03/M02 A3036 RMK A01 T00331019  RH  069%=      5-min Rain = 0
KCL2 121141Z 03007KT 03/M02 A3036 RMK A01 T00331019  RH  069%=      5-min Rain = 0
KCL2 121142Z 03006KT 03/M02 A3036 RMK A01 T00331019  RH  069%=      5-min Rain = 0
KCL2 121143Z 03007KT 03/M02 A3036 RMK A01 T00321019  RH  069%=      5-min Rain = 0
KCL2 121144Z 04006KT 03/M02 A3036 RMK A01 T00321019  RH  069%=      5-min Rain = 0
KCL2 121145Z 03006KT 03/M02 A3036 RMK A01 T00321019  RH  069%=      5-min Rain = 0
KCL2 121146Z 03006KT 03/M02 A3036 RMK A01 T00321019  RH  069%=      5-min Rain = 0
KCL2 121147Z 03005KT 03/M02 A3036 RMK A01 T00321019  RH  069%=      5-min Rain = 0
KCL2 121148Z 03006KT 03/M02 A3036 RMK A01 T00321018  RH  070%=      5-min Rain = 0
KCL2 121149Z 02006KT 03/M02 A3036 RMK A01 T00311019  RH  070%=      5-min Rain = 0
KCL2 121150Z 03006KT 03/M02 A3036 RMK A01 T00311019  RH  070%=      5-min Rain = 0
KCL2 121151Z 03007KT 03/M02 A3036 RMK A01 T00311019  RH  070%=      5-min Rain = 0
KCL2 121152Z 03005KT 03/M02 A3036 RMK A01 T00321019  RH  070%=      5-min Rain = 0
KCL2 121153Z 02006KT 03/M02 A3036 RMK A01 T00311019  RH  070%=      5-min Rain = 0
KCL2 121154Z 02006KT 03/M02 A3036 RMK A01 T00311019  RH  070%=      5-min Rain = 0
KCL2 121155Z 02006KT 03/M02 A3036 RMK A01 T00321019  RH  069%=      5-min Rain = 0
KCL2 121156Z 02007KT 03/M02 A3037 RMK A01 T00321019  RH  069%=      5-min Rain = 0
KCL2 121157Z 02006KT 03/M02 A3037 RMK A01 T00321019  RH  069%=      5-min Rain = 0
KCL2 121158Z 02005KT 03/M02 A3037 RMK A01 T00321019  RH  069%=      5-min Rain = 0
KCL2 121159Z 01004KT 03/M02 A3037 RMK A01 T00321018  RH  069%=      5-min Rain = 0
KCL2 121200Z 03005KT 03/M02 A3037 RMK A01 T00321018  RH  070%=      5-min Rain = 0
KCL2 121201Z 03005KT 03/M02 A3037 RMK A01 T00311018  RH  070%=      5-min Rain = 0
KCL2 121202Z 02006KT 03/M02 A3037 RMK A01 T00311018  RH  070%=      5-min Rain = 0
KCL2 121203Z 03005KT 03/M02 A3037 RMK A01 T00311018  RH  070%=      5-min Rain = 0
KCL2 121204Z 02005KT 03/M02 A3037 RMK A01 T00301019  RH  070%=      5-min Rain = 0
KCL2 121205Z 03005KT 03/M02 A3037 RMK A01 T00301019  RH  070%=      5-min Rain = 0
KCL2 121206Z 03005KT 03/M02 A3037 RMK A01 T00301019  RH  070%=      5-min Rain = 0
KCL2 121207Z 03004KT 03/M02 A3037 RMK A01 T00291019  RH  071%=      5-min Rain = 0
KCL2 121208Z 03005KT 03/M02 A3037 RMK A01 T00291019  RH  071%=      5-min Rain = 0
KCL2 121209Z 03005KT 03/M02 A3037 RMK A01 T00291019  RH  071%=      5-min Rain = 0
KCL2 121210Z 03005KT 03/M02 A3037 RMK A01 T00281019  RH  071%=      5-min Rain = 0
KCL2 121211Z 03006KT 03/M02 A3037 RMK A01 T00281019  RH  071%=      5-min Rain = 0
KCL2 121212Z 02005KT 03/M02 A3037 RMK A01 T00281019  RH  071%=      5-min Rain = 0
KCL2 121213Z 03005KT 03/M02 A3037 RMK A01 T00281018  RH  071%=      5-min Rain = 0
KCL2 121214Z 03005KT 03/M02 A3037 RMK A01 T00271019  RH  072%=      5-min Rain = 0
KCL2 121215Z 03006KT 03/M02 A3037 RMK A01 T00271019  RH  072%=      5-min Rain = 0
KCL2 121216Z 03006KT 03/M02 A3037 RMK A01 T00271019  RH  072%=      5-min Rain = 0
KCL2 121217Z 03006KT 03/M02 A3037 RMK A01 T00271019  RH  072%=      5-min Rain = 0
KCL2 121218Z 03006KT 03/M02 A3037 RMK A01 T00271019  RH  072%=      5-min Rain = 0
KCL2 121219Z 03006KT 03/M02 A3037 RMK A01 T00271019  RH  072%=      5-min Rain = 0
KCL2 121220Z 03006KT 03/M02 A3037 RMK A01 T00261019  RH  072%=      5-min Rain = 0
KCL2 121221Z 03004KT 03/M02 A3037 RMK A01 T00261019  RH  072%=      5-min Rain = 0
KCL2 121222Z 03005KT 03/M02 A3037 RMK A01 T00261020  RH  072%=      5-min Rain = 0
KCL2 121223Z 03006KT 03/M02 A3037 RMK A01 T00251020  RH  072%=      5-min Rain = 0
KCL2 121224Z 03005KT 03/M02 A3037 RMK A01 T00251020  RH  072%=      5-min Rain = 0
KCL2 121225Z 03004KT 03/M02 A3037 RMK A01 T00251020  RH  072%=      5-min Rain = 0
KCL2 121226Z 03005KT 03/M02 A3037 RMK A01 T00251020  RH  072%=      5-min Rain = 0
KCL2 121227Z 02005KT 03/M02 A3037 RMK A01 T00251020  RH  072%=      5-min Rain = 0
KCL2 121228Z 02004KT 03/M02 A3038 RMK A01 T00251020  RH  072%=      5-min Rain = 0
KCL2 121229Z 02004KT 03/M02 A3038 RMK A01 T00251020  RH  072%=      5-min Rain = 0
KCL2 121230Z 02003KT 03/M02 A3038 RMK A01 T00251020  RH  073%=      5-min Rain = 0
KCL2 121231Z 02004KT 02/M02 A3038 RMK A01 T00241020  RH  073%=      5-min Rain = 0
KCL2 121232Z 02004KT 02/M02 A3038 RMK A01 T00241020  RH  073%=      5-min Rain = 0
KCL2 121233Z 01003KT 02/M02 A3038 RMK A01 T00241019  RH  073%=      5-min Rain = 0
KCL2 121234Z 01003KT 02/M02 A3038 RMK A01 T00241020  RH  073%=      5-min Rain = 0
KCL2 121235Z 00002KT 02/M02 A3038 RMK A01 T00231021  RH  073%=      5-min Rain = 0
KCL2 121236Z 00002KT 02/M02 A3038 RMK A01 T00211023  RH  073%=      5-min Rain = 0
KCL2 121237Z 35003KT 02/M02 A3038 RMK A01 T00191024  RH  073%=      5-min Rain = 0
KCL2 121238Z 35003KT 02/M02 A3038 RMK A01 T00181024  RH  074%=      5-min Rain = 0
KCL2 121239Z 35003KT 02/M03 A3038 RMK A01 T00161025  RH  074%=      5-min Rain = 0
KCL2 121240Z 36003KT 02/M03 A3038 RMK A01 T00151025  RH  075%=      5-min Rain = 0
KCL2 121241Z 00003KT 01/M03 A3038 RMK A01 T00141025  RH  075%=      5-min Rain = 0
KCL2 121242Z 01003KT 01/M03 A3038 RMK A01 T00131025  RH  076%=      5-min Rain = 0
KCL2 121243Z 02004KT 01/M03 A3038 RMK A01 T00121025  RH  076%=      5-min Rain = 0
KCL2 121244Z 02003KT 01/M02 A3038 RMK A01 T00121024  RH  077%=      5-min Rain = 0
KCL2 121245Z 02004KT 01/M02 A3038 RMK A01 T00131023  RH  077%=      5-min Rain = 0
KCL2 121246Z 02004KT 02/M02 A3038 RMK A01 T00151022  RH  077%=      5-min Rain = 0
KCL2 121247Z 02005KT 02/M02 A3038 RMK A01 T00151022  RH  077%=      5-min Rain = 0
KCL2 121248Z 02005KT 02/M02 A3038 RMK A01 T00151022  RH  077%=      5-min Rain = 0
KCL2 121249Z 02005KT 02/M02 A3038 RMK A01 T00151021  RH  077%=      5-min Rain = 0
KCL2 121250Z 03005KT 02/M02 A3038 RMK A01 T00151021  RH  077%=      5-min Rain = 0
KCL2 121251Z 02006KT 02/M02 A3037 RMK A01 T00151021  RH  077%=      5-min Rain = 0
KCL2 121252Z 03005KT 01/M02 A3037 RMK A01 T00141020  RH  078%=      5-min Rain = 0
KCL2 121253Z 03005KT 01/M02 A3037 RMK A01 T00141020  RH  078%=      5-min Rain = 0
KCL2 121254Z 03005KT 01/M02 A3038 RMK A01 T00141021  RH  078%=      5-min Rain = 0
KCL2 121255Z 02005KT 01/M02 A3038 RMK A01 T00141021  RH  077%=      5-min Rain = 0
KCL2 121256Z 02005KT 01/M02 A3038 RMK A01 T00141021  RH  077%=      5-min Rain = 0
KCL2 121257Z 03006KT 01/M02 A3038 RMK A01 T00141021  RH  078%=      5-min Rain = 0
KCL2 121258Z 02005KT 01/M02 A3038 RMK A01 T00141021  RH  078%=      5-min Rain = 0
KCL2 121259Z 03006KT 01/M02 A3038 RMK A01 T00141021  RH  078%=      5-min Rain = 0
KCL2 121300Z 03006KT 01/M02 A3038 RMK A01 T00141021  RH  078%=      5-min Rain = 0
KCL2 121301Z 03006KT 02/M02 A3038 RMK A01 T00151021  RH  077%=      5-min Rain = 0
KCL2 121302Z 03005KT 02/M02 A3038 RMK A01 T00151021  RH  077%=      5-min Rain = 0
KCL2 121303Z 03005KT 02/M02 A3038 RMK A01 T00151021  RH  077%=      5-min Rain = 0
KCL2 121304Z 03005KT 02/M02 A3038 RMK A01 T00161021  RH  077%=      5-min Rain = 0
KCL2 121305Z 03005KT 02/M02 A3038 RMK A01 T00161021  RH  077%=      5-min Rain = 0
KCL2 121306Z 03005KT 02/M02 A3038 RMK A01 T00161021  RH  076%=      5-min Rain = 0
KCL2 121307Z 03005KT 02/M02 A3038 RMK A01 T00161021  RH  076%=      5-min Rain = 0
KCL2 121308Z 03005KT 02/M02 A3038 RMK A01 T00171021  RH  076%=      5-min Rain = 0
KCL2 121309Z 03005KT 02/M02 A3038 RMK A01 T00171021  RH  076%=      5-min Rain = 0
KCL2 121310Z 03004KT 02/M02 A3037 RMK A01 T00171020  RH  076%=      5-min Rain = 0
KCL2 121311Z 03004KT 02/M02 A3037 RMK A01 T00171020  RH  076%=      5-min Rain = 0
KCL2 121312Z 03005KT 02/M02 A3037 RMK A01 T00171020  RH  076%=      5-min Rain = 0
KCL2 121313Z 03005KT 02/M02 A3037 RMK A01 T00181020  RH  076%=      5-min Rain = 0
KCL2 121314Z 02004KT 02/M02 A3038 RMK A01 T00181020  RH  076%=      5-min Rain = 0
KCL2 121315Z 02004KT 02/M02 A3038 RMK A01 T00181019  RH  076%=      5-min Rain = 0
KCL2 121316Z 02004KT 02/M02 A3038 RMK A01 T00181019  RH  076%=      5-min Rain = 0
KCL2 121317Z 02003KT 02/M02 A3038 RMK A01 T00191018  RH  076%=      5-min Rain = 0
KCL2 121318Z 02004KT 02/M02 A3038 RMK A01 T00191018  RH  076%=      5-min Rain = 0
KCL2 121319Z 02004KT 02/M02 A3038 RMK A01 T00191018  RH  076%=      5-min Rain = 0
KCL2 121320Z 02004KT 02/M02 A3038 RMK A01 T00191018  RH  076%=      5-min Rain = 0
KCL2 121321Z 02004KT 02/M02 A3038 RMK A01 T00201018  RH  076%=      5-min Rain = 0
KCL2 121322Z 01004KT 02/M02 A3038 RMK A01 T00201018  RH  076%=      5-min Rain = 0
KCL2 121323Z 01004KT 02/M02 A3038 RMK A01 T00211017  RH  076%=      5-min Rain = 0
KCL2 121324Z 01004KT 02/M02 A3038 RMK A01 T00211017  RH  076%=      5-min Rain = 0
KCL2 121325Z 01004KT 02/M02 A3038 RMK A01 T00221017  RH  075%=      5-min Rain = 0
KCL2 121326Z 00004KT 02/M02 A3038 RMK A01 T00221017  RH  075%=      5-min Rain = 0
KCL2 121327Z 36003KT 02/M02 A3038 RMK A01 T00231016  RH  075%=      5-min Rain = 0
KCL2 121328Z 00003KT 02/M02 A3038 RMK A01 T00231016  RH  075%=      5-min Rain = 0
KCL2 121329Z 36003KT 02/M02 A3038 RMK A01 T00221017  RH  075%=      5-min Rain = 0
KCL2 121330Z 01003KT 02/M02 A3038 RMK A01 T00221017  RH  075%=      5-min Rain = 0
KCL2 121331Z 02003KT 02/M02 A3038 RMK A01 T00221017  RH  076%=      5-min Rain = 0
KCL2 121332Z 02004KT 02/M02 A3038 RMK A01 T00221017  RH  076%=      5-min Rain = 0
KCL2 121333Z 02004KT 02/M02 A3038 RMK A01 T00221016  RH  076%=      5-min Rain = 0
KCL2 121334Z 03005KT 02/M02 A3038 RMK A01 T00221016  RH  076%=      5-min Rain = 0
KCL2 121335Z 03004KT 02/M02 A3038 RMK A01 T00231016  RH  076%=      5-min Rain = 0
KCL2 121336Z 02004KT 02/M02 A3038 RMK A01 T00241015  RH  076%=      5-min Rain = 0
KCL2 121337Z 03004KT 02/M01 A3038 RMK A01 T00241014  RH  076%=      5-min Rain = 0
KCL2 121338Z 03004KT 03/M01 A3038 RMK A01 T00251014  RH  076%=      5-min Rain = 0
KCL2 121339Z 02004KT 03/M01 A3038 RMK A01 T00251014  RH  075%=      5-min Rain = 0
KCL2 121340Z 02005KT 03/M02 A3038 RMK A01 T00251015  RH  075%=      5-min Rain = 0
KCL2 121341Z 02004KT 03/M02 A3038 RMK A01 T00251015  RH  075%=      5-min Rain = 0
KCL2 121342Z 02005KT 03/M02 A3038 RMK A01 T00261015  RH  075%=      5-min Rain = 0
KCL2 121343Z 01004KT 03/M01 A3038 RMK A01 T00261014  RH  075%=      5-min Rain = 0
KCL2 121344Z 01005KT 03/M01 A3038 RMK A01 T00271014  RH  074%=      5-min Rain = 0
KCL2 121345Z 01004KT 03/M01 A3038 RMK A01 T00281014  RH  074%=      5-min Rain = 0
KCL2 121346Z 01004KT 03/M01 A3038 RMK A01 T00281014  RH  074%=      5-min Rain = 0
KCL2 121347Z 01005KT 03/M01 A3038 RMK A01 T00291014  RH  074%=      5-min Rain = 0
KCL2 121348Z 01004KT 03/M01 A3038 RMK A01 T00301013  RH  073%=      5-min Rain = 0
KCL2 121349Z 02004KT 03/M01 A3038 RMK A01 T00311013  RH  073%=      5-min Rain = 0
KCL2 121350Z 02004KT 03/M01 A3038 RMK A01 T00311013  RH  073%=      5-min Rain = 0
KCL2 121351Z 02004KT 03/M01 A3038 RMK A01 T00311013  RH  073%=      5-min Rain = 0
KCL2 121352Z 01003KT 03/M01 A3038 RMK A01 T00321014  RH  072%=      5-min Rain = 0
KCL2 121353Z 02004KT 03/M01 A3038 RMK A01 T00321014  RH  072%=      5-min Rain = 0
KCL2 121354Z 00003KT 03/M01 A3038 RMK A01 T00321013  RH  072%=      5-min Rain = 0
KCL2 121355Z 01004KT 03/M01 A3039 RMK A01 T00321012  RH  072%=      5-min Rain = 0
KCL2 121356Z 01004KT 03/M01 A3039 RMK A01 T00321013  RH  072%=      5-min Rain = 0
KCL2 121357Z 01003KT 03/M01 A3039 RMK A01 T00321013  RH  072%=      5-min Rain = 0
KCL2 121358Z 00003KT 03/M01 A3039 RMK A01 T00321012  RH  073%=      5-min Rain = 0
KCL2 121359Z 35003KT 03/M01 A3039 RMK A01 T00321013  RH  072%=      5-min Rain = 0
KCL2 121400Z 35004KT 03/M01 A3039 RMK A01 T00321013  RH  072%=      5-min Rain = 0
KCL2 121401Z 01003KT 03/M01 A3039 RMK A01 T00321013  RH  072%=      5-min Rain = 0
KCL2 121402Z 02003KT 03/M01 A3039 RMK A01 T00321013  RH  073%=      5-min Rain = 0
KCL2 121403Z 03004KT 03/M01 A3039 RMK A01 T00321013  RH  073%=      5-min Rain = 0
KCL2 121404Z 01002KT 03/M01 A3039 RMK A01 T00321012  RH  073%=      5-min Rain = 0
KCL2 121405Z 02002KT 03/M01 A3039 RMK A01 T00331011  RH  073%=      5-min Rain = 0
KCL2 121406Z 04002KT 03/M01 A3039 RMK A01 T00331011  RH  073%=      5-min Rain = 0
KCL2 121407Z 03003KT 03/M01 A3039 RMK A01 T00341011  RH  072%=      5-min Rain = 0
KCL2 121408Z 02003KT 03/M01 A3039 RMK A01 T00341011  RH  072%=      5-min Rain = 0
KCL2 121409Z 03005KT 04/M01 A3039 RMK A01 T00351012  RH  071%=      5-min Rain = 0
KCL2 121410Z 02004KT 04/M01 A3039 RMK A01 T00351013  RH  071%=      5-min Rain = 0
KCL2 121411Z 03005KT 04/M01 A3039 RMK A01 T00351014  RH  071%=      5-min Rain = 0
KCL2 121412Z 04005KT 04/M01 A3039 RMK A01 T00351014  RH  070%=      5-min Rain = 0
KCL2 121413Z 03005KT 04/M02 A3039 RMK A01 T00351015  RH  070%=      5-min Rain = 0
KCL2 121414Z 04005KT 04/M02 A3039 RMK A01 T00351015  RH  070%=      5-min Rain = 0
KCL2 121415Z 04004KT 04/M02 A3039 RMK A01 T00351015  RH  070%=      5-min Rain = 0
KCL2 121416Z 04005KT 04/M01 A3039 RMK A01 T00361013  RH  071%=      5-min Rain = 0
KCL2 121417Z 04005KT 04/M01 A3039 RMK A01 T00371013  RH  070%=      5-min Rain = 0
KCL2 121418Z 04005KT 04/M01 A304 RMK A01 T00371013  RH  070%=      5-min Rain = 0
KCL2 121419Z 03005KT 04/M01 A304 RMK A01 T00371013  RH  070%=      5-min Rain = 0
KCL2 121420Z 03006KT 04/M01 A304 RMK A01 T00381013  RH  069%=      5-min Rain = 0
KCL2 121421Z 04004KT 04/M01 A304 RMK A01 T00391013  RH  069%=      5-min Rain = 0
KCL2 121422Z 03005KT 04/M01 A3039 RMK A01 T00391013  RH  069%=      5-min Rain = 0
KCL2 121423Z 02004KT 04/M01 A3039 RMK A01 T00391014  RH  068%=      5-min Rain = 0
KCL2 121424Z 02005KT 04/M01 A3039 RMK A01 T00391012  RH  069%=      5-min Rain = 0
KCL2 121425Z 03006KT 04/M01 A3039 RMK A01 T00401013  RH  068%=      5-min Rain = 0
KCL2 121426Z 04006KT 04/M01 A3039 RMK A01 T00401014  RH  068%=      5-min Rain = 0
KCL2 121427Z 03005KT 04/M01 A3039 RMK A01 T00401013  RH  068%=      5-min Rain = 0
KCL2 121428Z 04007KT 04/M01 A3039 RMK A01 T00411014  RH  068%=      5-min Rain = 0
KCL2 121429Z 04008KT 04/M01 A3039 RMK A01 T00411014  RH  067%=      5-min Rain = 0
KCL2 121430Z 04007KT 04/M02 A3039 RMK A01 T00411015  RH  067%=      5-min Rain = 0
KCL2 121431Z 04007KT 04/M01 A3039 RMK A01 T00411014  RH  067%=      5-min Rain = 0
KCL2 121432Z 04007KT 04/M01 A3039 RMK A01 T00421013  RH  067%=      5-min Rain = 0
KCL2 121433Z 04005KT 04/M01 A3039 RMK A01 T00421014  RH  067%=      5-min Rain = 0
KCL2 121434Z 04005KT 04/M01 A3039 RMK A01 T00431012  RH  068%=      5-min Rain = 0
KCL2 121435Z 04008KT 04/M01 A3039 RMK A01 T00441012  RH  067%=      5-min Rain = 0
KCL2 121436Z 04007KT 04/M02 A3039 RMK A01 T00431016  RH  065%=      5-min Rain = 0
KCL2 121437Z 04006KT 04/M02 A3039 RMK A01 T00431015  RH  066%=      5-min Rain = 0
KCL2 121438Z 05006KT 04/M02 A3039 RMK A01 T00431015  RH  066%=      5-min Rain = 0
KCL2 121439Z 05007KT 04/M02 A3039 RMK A01 T00431015  RH  066%=      5-min Rain = 0
KCL2 121440Z 05007KT 04/M02 A3039 RMK A01 T00431015  RH  066%=      5-min Rain = 0
KCL2 121441Z 05008KT 04/M02 A3039 RMK A01 T00441015  RH  065%=      5-min Rain = 0
KCL2 121442Z 05008KT 04/M02 A304 RMK A01 T00441016  RH  065%=      5-min Rain = 0
KCL2 121443Z 05008KT 04/M02 A304 RMK A01 T00441016  RH  065%=      5-min Rain = 0
KCL2 121444Z 05008KT 04/M02 A304 RMK A01 T00441016  RH  065%=      5-min Rain = 0
KCL2 121445Z 04008KT 04/M02 A304 RMK A01 T00441016  RH  065%=      5-min Rain = 0
KCL2 121446Z 05007KT 04/M02 A304 RMK A01 T00441016  RH  065%=      5-min Rain = 0
KCL2 121447Z 05008KT 04/M02 A304 RMK A01 T00441016  RH  065%=      5-min Rain = 0
KCL2 121448Z 04007KT 04/M02 A304 RMK A01 T00441016  RH  065%=      5-min Rain = 0
KCL2 121449Z 03006KT 05/M02 A304 RMK A01 T00451015  RH  065%=      5-min Rain = 0
KCL2 121450Z 04006KT 05/M01 A304 RMK A01 T00471013  RH  065%=      5-min Rain = 0
KCL2 121451Z 03006KT 05/M01 A304 RMK A01 T00481014  RH  065%=      5-min Rain = 0
KCL2 121452Z 02007KT 05/M01 A304 RMK A01 T00491012  RH  065%=      5-min Rain = 0
KCL2 121453Z 04007KT 05/M01 A304 RMK A01 T00491014  RH  064%=      5-min Rain = 0
KCL2 121454Z 03006KT 05/M01 A304 RMK A01 T00481014  RH  064%=      5-min Rain = 0
KCL2 121455Z 05005KT 05/M01 A304 RMK A01 T00481014  RH  064%=      5-min Rain = 0
KCL2 121456Z 03006KT 05/M01 A304 RMK A01 T00481014  RH  064%=      5-min Rain = 0
KCL2 121457Z 04006KT 05/M02 A304 RMK A01 T00471016  RH  064%=      5-min Rain = 0
KCL2 121458Z 06006KT 05/M01 A304 RMK A01 T00471014  RH  065%=      5-min Rain = 0
KCL2 121459Z 05006KT 05/M01 A304 RMK A01 T00481013  RH  064%=      5-min Rain = 0
KCL2 121500Z 03008KT 05/M01 A304 RMK A01 T00501012  RH  064%=      5-min Rain = 0
KCL2 121501Z 02007KT 05/M01 A304 RMK A01 T00501014  RH  063%=      5-min Rain = 0
KCL2 121502Z 03007KT 05/M01 A304 RMK A01 T00511014  RH  063%=      5-min Rain = 0
KCL2 121503Z 03008KT 05/M01 A304 RMK A01 T00511014  RH  063%=      5-min Rain = 0
KCL2 121504Z 02008KT 05/M01 A304 RMK A01 T00521014  RH  063%=      5-min Rain = 0
KCL2 121505Z 03008KT 05/M01 A304 RMK A01 T00521014  RH  062%=      5-min Rain = 0
KCL2 121506Z 04007KT 05/M02 A304 RMK A01 T00511016  RH  062%=      5-min Rain = 0
KCL2 121507Z 05006KT 05/M02 A304 RMK A01 T00501016  RH  063%=      5-min Rain = 0
KCL2 121508Z 05006KT 05/M02 A304 RMK A01 T00491015  RH  063%=      5-min Rain = 0
KCL2 121509Z 05007KT 05/M02 A304 RMK A01 T00501015  RH  063%=      5-min Rain = 0
KCL2 121510Z 04006KT 05/M01 A304 RMK A01 T00501014  RH  063%=      5-min Rain = 0
KCL2 121511Z 05007KT 05/M01 A304 RMK A01 T00521013  RH  063%=      5-min Rain = 0
KCL2 121512Z 05010KT 05/M02 A304 RMK A01 T00541015  RH  061%=      5-min Rain = 0
KCL2 121513Z 05009KT 06/M01 A304 RMK A01 T00561014  RH  061%=      5-min Rain = 0
KCL2 121514Z 05008KT 06/M01 A304 RMK A01 T00571014  RH  060%=      5-min Rain = 0
KCL2 121515Z 05008KT 06/M02 A304 RMK A01 T00581015  RH  059%=      5-min Rain = 0
KCL2 121516Z 05008KT 06/M01 A304 RMK A01 T00591013  RH  060%=      5-min Rain = 0
KCL2 121517Z 05009KT 06/M01 A304 RMK A01 T00611013  RH  059%=      5-min Rain = 0
KCL2 121518Z 05009KT 06/M02 A304 RMK A01 T00601015  RH  059%=      5-min Rain = 0
KCL2 121519Z 03008KT 06/M02 A304 RMK A01 T00591015  RH  059%=      5-min Rain = 0
KCL2 121520Z 04008KT 06/M02 A304 RMK A01 T00581015  RH  059%=      5-min Rain = 0
KCL2 121521Z 05008KT 06/M02 A304 RMK A01 T00581015  RH  059%=      5-min Rain = 0
KCL2 121522Z 06010KT 06/M02 A304 RMK A01 T00581015  RH  059%=      5-min Rain = 0
KCL2 121523Z 04009KT 06/M02 A304 RMK A01 T00581016  RH  059%=      5-min Rain = 0
KCL2 121524Z 04008KT 06/M02 A304 RMK A01 T00591016  RH  059%=      5-min Rain = 0
KCL2 121525Z 04008KT 06/M01 A304 RMK A01 T00621013  RH  059%=      5-min Rain = 0
KCL2 121526Z 03008KT 06/M01 A304 RMK A01 T00631013  RH  058%=      5-min Rain = 0
KCL2 121527Z 02008KT 07/M01 A304 RMK A01 T00651013  RH  057%=      5-min Rain = 0
KCL2 121528Z 02008KT 07/M01 A304 RMK A01 T00651014  RH  057%=      5-min Rain = 0
KCL2 121529Z 03008KT 06/M02 A304 RMK A01 T00641015  RH  057%=      5-min Rain = 0
KCL2 121530Z 03008KT 06/M01 A304 RMK A01 T00641013  RH  058%=      5-min Rain = 0
KCL2 121531Z 03009KT 07/M01 A304 RMK A01 T00661013  RH  057%=      5-min Rain = 0
KCL2 121532Z 03008KT 07/M02 A304 RMK A01 T00651015  RH  057%=      5-min Rain = 0
KCL2 121533Z 04006KT 06/M02 A304 RMK A01 T00641015  RH  057%=      5-min Rain = 0
KCL2 121534Z 05009KT 07/M01 A304 RMK A01 T00661013  RH  057%=      5-min Rain = 0
KCL2 121535Z 05008KT 07/M01 A304 RMK A01 T00691012  RH  056%=      5-min Rain = 0
KCL2 121536Z 05008KT 07/M01 A304 RMK A01 T00701013  RH  055%=      5-min Rain = 0
KCL2 121537Z 03007KT 07/M01 A304 RMK A01 T00731010  RH  056%=      5-min Rain = 0
KCL2 121538Z 03006KT 08/M01 A304 RMK A01 T00771008  RH  055%=      5-min Rain = 0
KCL2 121539Z 03007KT 08/M01 A304 RMK A01 T00791008  RH  054%=      5-min Rain = 0
KCL2 121540Z 04005KT 08/M01 A304 RMK A01 T00801008  RH  054%=      5-min Rain = 0
KCL2 121541Z 02007KT 08/M01 A304 RMK A01 T00821008  RH  053%=      5-min Rain = 0
KCL2 121542Z 01008KT 08/M01 A304 RMK A01 T00801011  RH  053%=      5-min Rain = 0
KCL2 121543Z 04008KT 08/M01 A304 RMK A01 T00781010  RH  054%=      5-min Rain = 0
KCL2 121544Z 05009KT 08/M01 A304 RMK A01 T00791010  RH  053%=      5-min Rain = 0
KCL2 121545Z 05007KT 08/M01 A304 RMK A01 T00771013  RH  053%=      5-min Rain = 0
KCL2 121546Z 03009KT 08/M01 A304 RMK A01 T00771009  RH  054%=      5-min Rain = 0
KCL2 121547Z 04010KT 08/M01 A304 RMK A01 T00821008  RH  053%=      5-min Rain = 0
KCL2 121548Z 02009KT 08/M01 A304 RMK A01 T00841009  RH  052%=      5-min Rain = 0
KCL2 121549Z 03011KT 08/M01 A304 RMK A01 T00811014  RH  051%=      5-min Rain = 0
KCL2 121550Z 03008KT 08/M02 A304 RMK A01 T00761016  RH  052%=      5-min Rain = 0
KCL2 121551Z 01009KT 08/M01 A304 RMK A01 T00751014  RH  053%=      5-min Rain = 0
KCL2 121552Z 01006KT 07/M02 A304 RMK A01 T00741015  RH  053%=      5-min Rain = 0
KCL2 121553Z 02006KT 07/M01 A304 RMK A01 T00741013  RH  054%=      5-min Rain = 0
KCL2 121554Z 03008KT 08/M01 A304 RMK A01 T00781009  RH  054%=      5-min Rain = 0
KCL2 121555Z 04011KT 08/M01 A304 RMK A01 T00791011  RH  053%=      5-min Rain = 0
KCL2 121556Z 04010KT 08/M01 A304 RMK A01 T00791010  RH  053%=      5-min Rain = 0
KCL2 121557Z 03010KT 08/M01 A304 RMK A01 T00801011  RH  053%=      5-min Rain = 0
KCL2 121558Z 04009KT 08/M01 A304 RMK A01 T00781012  RH  053%=      5-min Rain = 0
KCL2 121559Z 05008KT 08/M01 A304 RMK A01 T00761012  RH  054%=      5-min Rain = 0
KCL2 121600Z 03008KT 08/M01 A304 RMK A01 T00791008  RH  054%=      5-min Rain = 0
KCL2 121601Z 03008G14KT 09/M00 A304 RMK A01 T00871003  RH  053%=      5-min Rain = 0
KCL2 121602Z 04010KT 09/M01 A304 RMK A01 T00901006  RH  051%=      5-min Rain = 0
KCL2 121603Z 04011KT 09/M01 A304 RMK A01 T00881010  RH  050%=      5-min Rain = 0
KCL2 121604Z 02011KT 09/M01 A304 RMK A01 T00861010  RH  051%=      5-min Rain = 0
KCL2 121605Z 02008KT 08/M01 A304 RMK A01 T00841010  RH  052%=      5-min Rain = 0
KCL2 121606Z 02010KT 08/M01 A304 RMK A01 T00841010  RH  052%=      5-min Rain = 0
KCL2 121607Z 01011KT 09/M01 A304 RMK A01 T00851010  RH  051%=      5-min Rain = 0
KCL2 121608Z 03011KT 09/M01 A304 RMK A01 T00851011  RH  051%=      5-min Rain = 0
KCL2 121609Z 03010KT 08/M01 A304 RMK A01 T00841011  RH  051%=      5-min Rain = 0
KCL2 121610Z 01010KT 08/M01 A304 RMK A01 T00841011  RH  051%=      5-min Rain = 0
KCL2 121611Z 01008KT 08/M01 A304 RMK A01 T00821014  RH  051%=      5-min Rain = 0
KCL2 121612Z 02010KT 08/M01 A304 RMK A01 T00801012  RH  052%=      5-min Rain = 0
KCL2 121613Z 03011KT 08/M01 A304 RMK A01 T00801012  RH  052%=      5-min Rain = 0
KCL2 121614Z 02010KT 08/M01 A304 RMK A01 T00781012  RH  053%=      5-min Rain = 0
KCL2 121615Z 02007KT 08/M01 A304 RMK A01 T00781012  RH  053%=      5-min Rain = 0
KCL2 121616Z 03009KT 08/M01 A304 RMK A01 T00811009  RH  053%=      5-min Rain = 0
KCL2 121617Z 02010KT 08/M01 A304 RMK A01 T00841010  RH  052%=      5-min Rain = 0
KCL2 121618Z 01011KT 09/M01 A304 RMK A01 T00851012  RH  051%=      5-min Rain = 0
KCL2 121619Z 02011KT 08/M01 A3041 RMK A01 T00841014  RH  050%=      5-min Rain = 0
KCL2 121620Z 04009KT 08/M01 A3041 RMK A01 T00831014  RH  051%=      5-min Rain = 0
KCL2 121621Z 03011KT 08/M01 A3041 RMK A01 T00821014  RH  051%=      5-min Rain = 0
KCL2 121622Z 03009KT 08/M01 A3041 RMK A01 T00821014  RH  051%=      5-min Rain = 0
KCL2 121623Z 01007KT 08/M01 A3041 RMK A01 T00811012  RH  052%=      5-min Rain = 0
KCL2 121624Z 02007KT 08/M01 A3041 RMK A01 T00821011  RH  052%=      5-min Rain = 0
KCL2 121625Z 04009KT 08/M01 A3041 RMK A01 T00841011  RH  051%=      5-min Rain = 0
KCL2 121626Z 03009KT 08/M01 A3041 RMK A01 T00841010  RH  052%=      5-min Rain = 0
KCL2 121627Z 02008KT 09/M01 A3041 RMK A01 T00861009  RH  051%=      5-min Rain = 0
KCL2 121628Z 03006KT 08/M01 A3041 RMK A01 T00841012  RH  051%=      5-min Rain = 0
KCL2 121629Z 02007KT 08/M01 A3041 RMK A01 T00841008  RH  052%=      5-min Rain = 0
KCL2 121630Z 04010KT 09/M01 A3041 RMK A01 T00881007  RH  051%=      5-min Rain = 0
KCL2 121631Z 04008KT 09/M01 A3041 RMK A01 T00891009  RH  050%=      5-min Rain = 0
KCL2 121632Z 05007KT 09/M01 A3041 RMK A01 T00881011  RH  050%=      5-min Rain = 0
KCL2 121633Z 03004KT 09/M01 A3041 RMK A01 T00851012  RH  050%=      5-min Rain = 0
KCL2 121634Z 05007KT 09/M01 A3041 RMK A01 T00861009  RH  051%=      5-min Rain = 0
KCL2 121635Z 04010KT 09/M01 A3041 RMK A01 T00901008  RH  050%=      5-min Rain = 0
KCL2 121636Z 03012KT 09/M01 A3041 RMK A01 T00911008  RH  050%=      5-min Rain = 0
KCL2 121637Z 02009KT 09/M01 A3041 RMK A01 T00901011  RH  049%=      5-min Rain = 0
KCL2 121638Z 01006KT 09/M01 A3041 RMK A01 T00871013  RH  050%=      5-min Rain = 0
KCL2 121639Z 35005G10KT 09/M01 A3041 RMK A01 T00871009  RH  051%=      5-min Rain = 0
KCL2 121640Z 35006KT 09/M01 A3041 RMK A01 T00901009  RH  050%=      5-min Rain = 0
KCL2 121641Z 33007KT 09/M01 A3041 RMK A01 T00911010  RH  049%=      5-min Rain = 0
KCL2 121642Z 34006KT 09/M01 A3041 RMK A01 T00911009  RH  049%=      5-min Rain = 0
KCL2 121643Z 02005KT 09/M01 A3041 RMK A01 T00911008  RH  050%=      5-min Rain = 0
KCL2 121644Z 00005KT 10/M00 A3041 RMK A01 T00951004  RH  050%=      5-min Rain = 0
KCL2 121645Z 35007KT 10/M01 A3041 RMK A01 T00971006  RH  048%=      5-min Rain = 0
KCL2 121646Z 33010KT 10/M01 A3041 RMK A01 T00971008  RH  048%=      5-min Rain = 0
KCL2 121647Z 32007KT 10/M01 A3041 RMK A01 T00961009  RH  048%=      5-min Rain = 0
KCL2 121648Z 34008KT 10/M01 A3041 RMK A01 T00971009  RH  048%=      5-min Rain = 0
KCL2 121649Z 36009KT 10/M01 A3041 RMK A01 T00961010  RH  048%=      5-min Rain = 0
KCL2 121650Z 00008KT 09/M01 A3041 RMK A01 T00941011  RH  048%=      5-min Rain = 0
KCL2 121651Z 01008KT 09/M01 A3041 RMK A01 T00931010  RH  048%=      5-min Rain = 0
KCL2 121652Z 00006KT 09/M01 A3041 RMK A01 T00931010  RH  048%=      5-min Rain = 0
KCL2 121653Z 01005KT 09/M01 A3041 RMK A01 T00941009  RH  048%=      5-min Rain = 0
KCL2 121654Z 36009KT 10/M01 A3041 RMK A01 T00951009  RH  048%=      5-min Rain = 0
KCL2 121655Z 35007KT 10/M01 A3041 RMK A01 T00951009  RH  048%=      5-min Rain = 0
KCL2 121656Z 02009KT 10/M01 A3041 RMK A01 T00971007  RH  048%=      5-min Rain = 0
KCL2 121657Z 01007KT 10/M01 A3041 RMK A01 T01001007  RH  047%=      5-min Rain = 0
KCL2 121658Z 01007G12KT 10/M01 A3041 RMK A01 T01001009  RH  047%=      5-min Rain = 0
KCL2 121659Z 01008KT 10/M01 A3041 RMK A01 T00971011  RH  047%=      5-min Rain = 0
KCL2 121700Z 01006KT 10/M01 A3041 RMK A01 T00951011  RH  047%=      5-min Rain = 0
KCL2 121701Z 36008KT 10/M01 A3041 RMK A01 T00961009  RH  048%=      5-min Rain = 0
KCL2 121702Z 02009KT 10/M01 A3041 RMK A01 T00991008  RH  047%=      5-min Rain = 0
KCL2 121703Z 00008KT 10/M01 A3041 RMK A01 T01001009  RH  047%=      5-min Rain = 0
KCL2 121704Z 36009KT 10/M01 A304 RMK A01 T00991009  RH  047%=      5-min Rain = 0
KCL2 121705Z 02006KT 10/M01 A304 RMK A01 T00971011  RH  047%=      5-min Rain = 0
KCL2 121706Z 00004KT 09/M01 A304 RMK A01 T00941012  RH  048%=      5-min Rain = 0
KCL2 121707Z 36006KT 09/M01 A304 RMK A01 T00931010  RH  048%=      5-min Rain = 0
KCL2 121708Z 36008G14KT 10/M01 A304 RMK A01 T00961007  RH  048%=      5-min Rain = 0
KCL2 121709Z 01011KT 10/M01 A304 RMK A01 T01001006  RH  048%=      5-min Rain = 0
KCL2 121710Z 01009KT 10/M01 A304 RMK A01 T01021006  RH  047%=      5-min Rain = 0
KCL2 121711Z 04009KT 10/M01 A304 RMK A01 T01041006  RH  046%=      5-min Rain = 0
KCL2 121712Z 04009KT 10/M01 A304 RMK A01 T01031008  RH  046%=      5-min Rain = 0
KCL2 121713Z 04006KT 10/M01 A304 RMK A01 T01021008  RH  046%=      5-min Rain = 0
KCL2 121714Z 06005KT 10/M01 A304 RMK A01 T00991012  RH  046%=      5-min Rain = 0
KCL2 121715Z 02005KT 10/M01 A304 RMK A01 T00971011  RH  047%=      5-min Rain = 0
KCL2 121716Z 34007KT 10/M01 A304 RMK A01 T00971010  RH  047%=      5-min Rain = 0
KCL2 121717Z 34005G10KT 10/M01 A304 RMK A01 T01001010  RH  047%=      5-min Rain = 0
KCL2 121718Z 01009KT 10/M01 A304 RMK A01 T01011009  RH  046%=      5-min Rain = 0
KCL2 121719Z 01008KT 10/M01 A304 RMK A01 T01031011  RH  045%=      5-min Rain = 0
KCL2 121720Z 02007KT 10/M01 A304 RMK A01 T01001013  RH  045%=      5-min Rain = 0
KCL2 121721Z 02004KT 10/M01 A304 RMK A01 T00971013  RH  046%=      5-min Rain = 0
KCL2 121722Z 02008KT 10/M01 A304 RMK A01 T00961011  RH  047%=      5-min Rain = 0
KCL2 121723Z 01008KT 10/M01 A304 RMK A01 T00981010  RH  047%=      5-min Rain = 0
KCL2 121724Z 01008KT 10/M01 A304 RMK A01 T00991010  RH  047%=      5-min Rain = 0
KCL2 121725Z 02005KT 10/M01 A304 RMK A01 T00991010  RH  047%=      5-min Rain = 0
KCL2 121726Z 01006KT 10/M01 A304 RMK A01 T01001010  RH  046%=      5-min Rain = 0
KCL2 121727Z 04004KT 10/M01 A304 RMK A01 T00991011  RH  046%=      5-min Rain = 0
KCL2 121728Z 03004KT 10/M01 A304 RMK A01 T00961012  RH  047%=      5-min Rain = 0
KCL2 121729Z 03005KT 09/M01 A304 RMK A01 T00941012  RH  047%=      5-min Rain = 0
KCL2 121730Z 04007KT 10/M01 A304 RMK A01 T00961010  RH  048%=      5-min Rain = 0
KCL2 121731Z 01006KT 10/M01 A304 RMK A01 T01001008  RH  047%=      5-min Rain = 0
KCL2 121732Z 03009KT 11/M01 A304 RMK A01 T01051007  RH  046%=      5-min Rain = 0
KCL2 121733Z 03008KT 10/M01 A304 RMK A01 T01041013  RH  044%=      5-min Rain = 0
KCL2 121734Z 03007KT 10/M01 A304 RMK A01 T01031012  RH  045%=      5-min Rain = 0
KCL2 121735Z 03006KT 10/M01 A304 RMK A01 T01031013  RH  044%=      5-min Rain = 0
KCL2 121736Z 05004KT 10/M01 A304 RMK A01 T01011014  RH  045%=      5-min Rain = 0
KCL2 121737Z 08003KT 10/M01 A3039 RMK A01 T00991014  RH  045%=      5-min Rain = 0
KCL2 121738Z 01006KT 10/M01 A3039 RMK A01 T00981012  RH  046%=      5-min Rain = 0
KCL2 121739Z 00008KT 10/M01 A304 RMK A01 T01001012  RH  046%=      5-min Rain = 0
KCL2 121740Z 01009KT 10/M01 A304 RMK A01 T01021012  RH  045%=      5-min Rain = 0
KCL2 121741Z 01008KT 10/M01 A304 RMK A01 T01031010  RH  045%=      5-min Rain = 0
KCL2 121742Z 02002KT 11/M01 A3039 RMK A01 T01051010  RH  045%=      5-min Rain = 0
KCL2 121743Z 02004KT 11/M01 A3039 RMK A01 T01051012  RH  044%=      5-min Rain = 0
KCL2 121744Z 01006KT 10/M01 A3039 RMK A01 T01041012  RH  044%=      5-min Rain = 0
KCL2 121745Z 01007KT 11/M01 A3039 RMK A01 T01051011  RH  044%=      5-min Rain = 0
KCL2 121746Z 02009KT 11/M01 A3039 RMK A01 T01071012  RH  044%=      5-min Rain = 0
KCL2 121747Z 02008KT 11/M01 A3039 RMK A01 T01081012  RH  043%=      5-min Rain = 0
KCL2 121748Z 03008KT 11/M01 A3039 RMK A01 T01061014  RH  043%=      5-min Rain = 0
KCL2 121749Z 02006KT 11/M01 A3039 RMK A01 T01061011  RH  044%=      5-min Rain = 0
KCL2 121750Z 34006KT 11/M01 A3039 RMK A01 T01081009  RH  044%=      5-min Rain = 0
KCL2 121751Z 35009KT 11/M01 A3039 RMK A01 T01101008  RH  044%=      5-min Rain = 0
KCL2 121752Z 34006KT 11/M01 A3039 RMK A01 T01091011  RH  043%=      5-min Rain = 0
KCL2 121753Z 00006KT 11/M01 A3039 RMK A01 T01091008  RH  044%=      5-min Rain = 0
KCL2 121754Z 04002KT 11/M01 A3039 RMK A01 T01091008  RH  044%=      5-min Rain = 0
KCL2 121755Z 00004KT 11/M01 A3039 RMK A01 T01101008  RH  044%=      5-min Rain = 0
KCL2 121756Z 00004KT 11/M01 A3039 RMK A01 T01111007  RH  044%=      5-min Rain = 0
KCL2 121757Z 01010KT 11/M01 A3038 RMK A01 T01131007  RH  043%=      5-min Rain = 0
KCL2 121758Z 02010KT 11/M01 A3038 RMK A01 T01141010  RH  042%=      5-min Rain = 0
KCL2 121759Z 02009KT 11/M01 A3038 RMK A01 T01131012  RH  042%=      5-min Rain = 0
KCL2 121800Z 03007KT 11/M01 A3038 RMK A01 T01111013  RH  042%=      5-min Rain = 0
KCL2 121801Z 05008KT 11/M01 A3038 RMK A01 T01111011  RH  043%=      5-min Rain = 0
KCL2 121802Z 02004KT 11/M01 A3038 RMK A01 T01111009  RH  043%=      5-min Rain = 0
KCL2 121803Z 01004KT 11/M01 A3038 RMK A01 T01131007  RH  043%=      5-min Rain = 0
KCL2 121804Z 01007KT 11/M01 A3038 RMK A01 T01141007  RH  043%=      5-min Rain = 0
KCL2 121805Z 04011KT 12/M01 A3038 RMK A01 T01151008  RH  043%=      5-min Rain = 0
KCL2 121806Z 02008KT 12/M01 A3038 RMK A01 T01161009  RH  042%=      5-min Rain = 0
KCL2 121807Z 02006KT 12/M01 A3038 RMK A01 T01171011  RH  041%=      5-min Rain = 0
KCL2 121808Z 04006KT 12/M01 A3037 RMK A01 T01171011  RH  041%=      5-min Rain = 0
KCL2 121809Z 02005KT 12/M01 A3037 RMK A01 T01171010  RH  041%=      5-min Rain = 0
KCL2 121810Z 02003KT 12/M01 A3037 RMK A01 T01151010  RH  042%=      5-min Rain = 0
KCL2 121811Z 07005KT 12/M01 A3037 RMK A01 T01161008  RH  042%=      5-min Rain = 0
KCL2 121812Z 06005KT 11/M01 A3037 RMK A01 T01131013  RH  041%=      5-min Rain = 0
KCL2 121813Z 04003KT 11/M01 A3037 RMK A01 T01101010  RH  043%=      5-min Rain = 0
KCL2 121814Z 01008G13KT 12/M01 A3037 RMK A01 T01151005  RH  044%=      5-min Rain = 0
KCL2 121815Z 04012KT 12/M01 A3037 RMK A01 T01191009  RH  041%=      5-min Rain = 0
KCL2 121816Z 05009KT 12/M01 A3037 RMK A01 T01171013  RH  040%=      5-min Rain = 0
KCL2 121817Z 03007KT 12/M01 A3037 RMK A01 T01151010  RH  042%=      5-min Rain = 0
KCL2 121818Z 01009KT 12/M01 A3037 RMK A01 T01201007  RH  042%=      5-min Rain = 0
KCL2 121819Z 33005KT 12/M01 A3037 RMK A01 T01181012  RH  040%=      5-min Rain = 0
KCL2 121820Z 35008KT 12/M01 A3037 RMK A01 T01181009  RH  041%=      5-min Rain = 0
KCL2 121821Z 34007KT 12/M01 A3037 RMK A01 T01191008  RH  042%=      5-min Rain = 0
KCL2 121822Z 35006KT 12/M01 A3037 RMK A01 T01221007  RH  041%=      5-min Rain = 0
KCL2 121823Z 35004KT 12/M01 A3037 RMK A01 T01211012  RH  040%=      5-min Rain = 0
KCL2 121824Z 02005KT 12/M01 A3036 RMK A01 T01161014  RH  040%=      5-min Rain = 0
KCL2 121825Z 04009KT 12/M01 A3037 RMK A01 T01151011  RH  042%=      5-min Rain = 0
KCL2 121826Z 02010KT 12/M01 A3036 RMK A01 T01191008  RH  041%=      5-min Rain = 0
KCL2 121827Z 04009KT 12/M01 A3036 RMK A01 T01231007  RH  041%=      5-min Rain = 0
KCL2 121828Z 05005KT 13/M01 A3036 RMK A01 T01261008  RH  039%=      5-min Rain = 0
KCL2 121829Z 07005KT 13/M01 A3036 RMK A01 T01261008  RH  040%=      5-min Rain = 0
KCL2 121830Z 05003KT 13/M01 A3036 RMK A01 T01261008  RH  040%=      5-min Rain = 0
KCL2 121831Z 01004KT 13/M01 A3036 RMK A01 T01261009  RH  039%=      5-min Rain = 0
KCL2 121832Z 00003KT 13/M01 A3036 RMK A01 T01271007  RH  040%=      5-min Rain = 0
KCL2 121833Z 36009KT 13/M01 A3036 RMK A01 T01291008  RH  039%=      5-min Rain = 0
KCL2 121834Z 35009KT 13/M01 A3036 RMK A01 T01291009  RH  038%=      5-min Rain = 0
KCL2 121835Z 03010G16KT 13/M01 A3035 RMK A01 T01271010  RH  039%=      5-min Rain = 0
KCL2 121836Z 06008KT 13/M01 A3036 RMK A01 T01261012  RH  038%=      5-min Rain = 0
KCL2 121837Z 09004KT 12/M02 A3035 RMK A01 T01201016  RH  039%=      5-min Rain = 0
KCL2 121838Z 03007KT 12/M01 A3035 RMK A01 T01201010  RH  040%=      5-min Rain = 0
KCL2 121839Z 05005KT 12/M01 A3035 RMK A01 T01221013  RH  039%=      5-min Rain = 0
KCL2 121840Z 04007KT 12/M01 A3035 RMK A01 T01211013  RH  040%=      5-min Rain = 0
KCL2 121841Z 01008KT 13/M01 A3035 RMK A01 T01261007  RH  040%=      5-min Rain = 0
KCL2 121842Z 03012KT 13/M01 A3035 RMK A01 T01311009  RH  038%=      5-min Rain = 0
KCL2 121843Z 04009KT 13/M01 A3035 RMK A01 T01331009  RH  037%=      5-min Rain = 0
KCL2 121844Z 04007KT 13/M02 A3035 RMK A01 T01301017  RH  036%=      5-min Rain = 0
KCL2 121845Z 04004KT 13/M02 A3035 RMK A01 T01251019  RH  037%=      5-min Rain = 0
KCL2 121846Z 01003KT 12/M02 A3035 RMK A01 T01231017  RH  038%=      5-min Rain = 0
KCL2 121847Z 35005KT 12/M01 A3035 RMK A01 T01241013  RH  039%=      5-min Rain = 0
KCL2 121848Z 01005KT 13/M01 A3035 RMK A01 T01271008  RH  039%=      5-min Rain = 0
KCL2 121849Z 35004KT 13/M01 A3035 RMK A01 T01301010  RH  038%=      5-min Rain = 0
KCL2 121850Z 35006KT 13/M01 A3035 RMK A01 T01291013  RH  038%=      5-min Rain = 0
KCL2 121851Z 01006KT 13/M01 A3035 RMK A01 T01271010  RH  039%=      5-min Rain = 0
KCL2 121852Z 36006G12KT 13/M01 A3035 RMK A01 T01291010  RH  038%=      5-min Rain = 0
KCL2 121853Z 01011KT 13/M01 A3034 RMK A01 T01281009  RH  039%=      5-min Rain = 0
KCL2 121854Z 01009KT 13/M01 A3034 RMK A01 T01271012  RH  038%=      5-min Rain = 0
KCL2 121855Z 35006KT 12/M01 A3034 RMK A01 T01231012  RH  039%=      5-min Rain = 0
KCL2 121856Z 36006KT 12/M01 A3034 RMK A01 T01231011  RH  039%=      5-min Rain = 0
KCL2 121857Z 01004KT 12/M01 A3034 RMK A01 T01231012  RH  039%=      5-min Rain = 0
KCL2 121858Z 04008KT 13/M01 A3034 RMK A01 T01251008  RH  040%=      5-min Rain = 0
KCL2 121859Z 04010KT 13/M01 A3034 RMK A01 T01301006  RH  039%=      5-min Rain = 0
KCL2 121900Z 03011KT 14/M01 A3034 RMK A01 T01361005  RH  038%=      5-min Rain = 0
KCL2 121901Z 04011KT 14/M01 A3034 RMK A01 T01371011  RH  036%=      5-min Rain = 0
KCL2 121902Z 06010KT 14/M01 A3034 RMK A01 T01351012  RH  036%=      5-min Rain = 0
KCL2 121903Z 05009KT 14/M01 A3034 RMK A01 T01351009  RH  037%=      5-min Rain = 0
KCL2 121904Z 07008KT 14/M01 A3034 RMK A01 T01391010  RH  036%=      5-min Rain = 0
KCL2 121905Z 07006KT 14/M01 A3034 RMK A01 T01361012  RH  036%=      5-min Rain = 0
KCL2 121906Z 07008KT 13/M02 A3034 RMK A01 T01321016  RH  036%=      5-min Rain = 0
KCL2 121907Z 08005KT 13/M02 A3034 RMK A01 T01281017  RH  036%=      5-min Rain = 0
KCL2 121908Z 04009G14KT 13/M01 A3034 RMK A01 T01291012  RH  037%=      5-min Rain = 0
KCL2 121909Z 03011KT 13/M02 A3034 RMK A01 T01341015  RH  036%=      5-min Rain = 0
KCL2 121910Z 04009KT 14/M02 A3034 RMK A01 T01351015  RH  035%=      5-min Rain = 0
KCL2 121911Z 02008KT 14/M02 A3033 RMK A01 T01351017  RH  035%=      5-min Rain = 0
KCL2 121912Z 04008KT 13/M02 A3033 RMK A01 T01321019  RH  035%=      5-min Rain = 0
KCL2 121913Z 03007KT 13/M02 A3033 RMK A01 T01301022  RH  035%=      5-min Rain = 0
KCL2 121914Z 00005KT 13/M02 A3033 RMK A01 T01301022  RH  035%=      5-min Rain = 0
KCL2 121915Z 00002KT 13/M02 A3033 RMK A01 T01301023  RH  034%=      5-min Rain = 0
KCL2 121916Z 01007KT 13/M02 A3033 RMK A01 T01301020  RH  035%=      5-min Rain = 0
KCL2 121917Z 02007KT 13/M02 A3033 RMK A01 T01321016  RH  036%=      5-min Rain = 0
KCL2 121918Z 35008KT 13/M02 A3033 RMK A01 T01321018  RH  035%=      5-min Rain = 0
KCL2 121919Z 34007KT 13/M02 A3033 RMK A01 T01321018  RH  035%=      5-min Rain = 0
KCL2 121920Z 35006KT 13/M02 A3033 RMK A01 T01331020  RH  035%=      5-min Rain = 0
KCL2 121921Z 01010KT 13/M02 A3033 RMK A01 T01341019  RH  035%=      5-min Rain = 0
KCL2 121922Z 03009KT 14/M02 A3033 RMK A01 T01351018  RH  035%=      5-min Rain = 0
KCL2 121923Z 05012KT 14/M02 A3033 RMK A01 T01371019  RH  034%=      5-min Rain = 0
KCL2 121924Z 05009KT 14/M02 A3033 RMK A01 T01371021  RH  033%=      5-min Rain = 0
KCL2 121925Z 04004KT 14/M02 A3033 RMK A01 T01361023  RH  033%=      5-min Rain = 0
KCL2 121926Z 06005KT 13/M02 A3033 RMK A01 T01321022  RH  034%=      5-min Rain = 0
KCL2 121927Z 07007KT 13/M03 A3033 RMK A01 T01341027  RH  033%=      5-min Rain = 0
KCL2 121928Z 06007KT 13/M03 A3033 RMK A01 T01321030  RH  032%=      5-min Rain = 0
KCL2 121929Z 04007KT 13/M03 A3033 RMK A01 T01321026  RH  033%=      5-min Rain = 0
KCL2 121930Z 05005KT 13/M02 A3033 RMK A01 T01321022  RH  034%=      5-min Rain = 0
KCL2 121931Z 04006G11KT 13/M02 A3032 RMK A01 T01301022  RH  035%=      5-min Rain = 0
KCL2 121932Z 03007KT 13/M02 A3033 RMK A01 T01311021  RH  035%=      5-min Rain = 0
KCL2 121933Z 02006KT 13/M02 A3032 RMK A01 T01321020  RH  035%=      5-min Rain = 0
KCL2 121934Z 34003KT 13/M02 A3032 RMK A01 T01331022  RH  034%=      5-min Rain = 0
KCL2 121935Z 30001KT 13/M02 A3032 RMK A01 T01321020  RH  035%=      5-min Rain = 0
KCL2 121936Z 04002KT 14/M02 A3032 RMK A01 T01351016  RH  035%=      5-min Rain = 0
KCL2 121937Z 35005KT 14/M02 A3032 RMK A01 T01371019  RH  034%=      5-min Rain = 0
KCL2 121938Z 33004KT 14/M02 A3032 RMK A01 T01371023  RH  033%=      5-min Rain = 0
KCL2 121939Z 35005KT 14/M02 A3032 RMK A01 T01371021  RH  033%=      5-min Rain = 0
KCL2 121940Z 00007KT 14/M02 A3032 RMK A01 T01381019  RH  034%=      5-min Rain = 0
KCL2 121941Z 35011KT 14/M02 A3032 RMK A01 T01401021  RH  033%=      5-min Rain = 0
KCL2 121942Z 01008KT 14/M02 A3032 RMK A01 T01381020  RH  033%=      5-min Rain = 0
KCL2 121943Z 03003KT 14/M02 A3032 RMK A01 T01351022  RH  034%=      5-min Rain = 0
KCL2 121944Z 28000KT 14/M02 A3032 RMK A01 T01351023  RH  033%=      5-min Rain = 0
KCL2 121945Z 35000KT 14/M02 A3032 RMK A01 T01351023  RH  033%=      5-min Rain = 0
KCL2 121946Z 02003KT 14/M02 A3032 RMK A01 T01371020  RH  034%=      5-min Rain = 0
KCL2 121947Z 05007G12KT 14/M02 A3032 RMK A01 T01421015  RH  034%=      5-min Rain = 0
KCL2 121948Z 07008KT 14/M02 A3032 RMK A01 T01441019  RH  032%=      5-min Rain = 0
KCL2 121949Z 08005KT 14/M03 A3032 RMK A01 T01371025  RH  032%=      5-min Rain = 0
KCL2 121950Z 08002KT 13/M03 A3032 RMK A01 T01321027  RH  033%=      5-min Rain = 0
KCL2 121951Z 08004KT 13/M02 A3032 RMK A01 T01301023  RH  035%=      5-min Rain = 0
KCL2 121952Z 04006KT 13/M02 A3032 RMK A01 T01321020  RH  035%=      5-min Rain = 0
KCL2 121953Z 01009KT 14/M02 A3032 RMK A01 T01361022  RH  033%=      5-min Rain = 0
KCL2 121954Z 03004KT 14/M03 A3032 RMK A01 T01371028  RH  032%=      5-min Rain = 0
KCL2 121955Z 01009KT 14/M03 A3032 RMK A01 T01351028  RH  032%=      5-min Rain = 0
KCL2 121956Z 02008KT 14/M02 A3032 RMK A01 T01361023  RH  033%=      5-min Rain = 0
KCL2 121957Z 02009KT 14/M02 A3032 RMK A01 T01391019  RH  033%=      5-min Rain = 0
KCL2 121958Z 02005KT 14/M02 A3032 RMK A01 T01421021  RH  032%=      5-min Rain = 0
KCL2 121959Z 36006KT 14/M02 A3032 RMK A01 T01411021  RH  033%=      5-min Rain = 0
KCL2 122000Z 35007KT 14/M02 A3031 RMK A01 T01411023  RH  032%=      5-min Rain = 0
KCL2 122001Z 36005KT 14/M03 A3031 RMK A01 T01391026  RH  032%=      5-min Rain = 0
KCL2 122002Z 34004KT 14/M03 A3031 RMK A01 T01391025  RH  032%=      5-min Rain = 0
KCL2 122003Z 34004KT 14/M03 A3031 RMK A01 T01371028  RH  032%=      5-min Rain = 0
KCL2 122004Z 30002KT 14/M03 A3031 RMK A01 T01351029  RH  032%=      5-min Rain = 0
KCL2 122005Z 35005G10KT 14/M03 A3031 RMK A01 T01351030  RH  032%=      5-min Rain = 0
KCL2 122006Z 34004KT 14/M03 A3031 RMK A01 T01361029  RH  032%=      5-min Rain = 0
KCL2 122007Z 01006KT 14/M03 A3031 RMK A01 T01371030  RH  031%=      5-min Rain = 0
KCL2 122008Z 01007KT 14/M03 A3031 RMK A01 T01371029  RH  031%=      5-min Rain = 0
KCL2 122009Z 02008KT 14/M03 A3031 RMK A01 T01381029  RH  031%=      5-min Rain = 0
KCL2 122010Z 00008KT 14/M03 A3031 RMK A01 T01391032  RH  030%=      5-min Rain = 0
KCL2 122011Z 36007KT 14/M03 A3031 RMK A01 T01391033  RH  030%=      5-min Rain = 0
KCL2 122012Z 35005KT 14/M03 A3031 RMK A01 T01401032  RH  030%=      5-min Rain = 0
KCL2 122013Z 00006G13KT 14/M04 A303 RMK A01 T01401035  RH  030%=      5-min Rain = 0
KCL2 122014Z 04008KT 14/M03 A303 RMK A01 T01421029  RH  030%=      5-min Rain = 0
KCL2 122015Z 04008KT 15/M03 A303 RMK A01 T01461031  RH  029%=      5-min Rain = 0
KCL2 122016Z 03006KT 14/M03 A303 RMK A01 T01441033  RH  029%=      5-min Rain = 0
KCL2 122017Z 05006KT 14/M03 A303 RMK A01 T01421034  RH  029%=      5-min Rain = 0
KCL2 122018Z 04007KT 14/M03 A303 RMK A01 T01431031  RH  030%=      5-min Rain = 0
KCL2 122019Z 02002KT 15/M03 A303 RMK A01 T01451032  RH  029%=      5-min Rain = 0
KCL2 122020Z 06002KT 14/M04 A303 RMK A01 T01431039  RH  028%=      5-min Rain = 0
KCL2 122021Z 04007G12KT 14/M03 A303 RMK A01 T01411034  RH  030%=      5-min Rain = 0
KCL2 122022Z 04009KT 14/M03 A303 RMK A01 T01431028  RH  031%=      5-min Rain = 0
KCL2 122023Z 03008KT 14/M03 A303 RMK A01 T01441029  RH  030%=      5-min Rain = 0
KCL2 122024Z 03005KT 14/M03 A303 RMK A01 T01421031  RH  030%=      5-min Rain = 0
KCL2 122025Z 04006KT 14/M03 A303 RMK A01 T01411028  RH  031%=      5-min Rain = 0
KCL2 122026Z 03005KT 14/M03 A303 RMK A01 T01421025  RH  031%=      5-min Rain = 0
KCL2 122027Z 03008KT 14/M02 A303 RMK A01 T01441022  RH  032%=      5-min Rain = 0
KCL2 122028Z 03005KT 14/M03 A303 RMK A01 T01421025  RH  032%=      5-min Rain = 0
KCL2 122029Z 05007KT 14/M03 A3029 RMK A01 T01401026  RH  032%=      5-min Rain = 0
KCL2 122030Z 02009KT 14/M03 A3029 RMK A01 T01391025  RH  032%=      5-min Rain = 0
KCL2 122031Z 02007KT 14/M03 A3029 RMK A01 T01401025  RH  032%=      5-min Rain = 0
KCL2 122032Z 33004KT 14/M03 A3029 RMK A01 T01411026  RH  031%=      5-min Rain = 0
KCL2 122033Z 31004KT 14/M03 A3029 RMK A01 T01411026  RH  031%=      5-min Rain = 0
KCL2 122034Z 01004KT 14/M03 A3029 RMK A01 T01411028  RH  031%=      5-min Rain = 0
KCL2 122035Z 06008KT 14/M03 A3029 RMK A01 T01411025  RH  032%=      5-min Rain = 0
KCL2 122036Z 04008KT 14/M03 A3029 RMK A01 T01431025  RH  031%=      5-min Rain = 0
KCL2 122037Z 04007KT 15/M02 A3029 RMK A01 T01461022  RH  031%=      5-min Rain = 0
KCL2 122038Z 04007KT 15/M02 A3029 RMK A01 T01481022  RH  031%=      5-min Rain = 0
KCL2 122039Z 06006KT 15/M02 A3029 RMK A01 T01491021  RH  031%=      5-min Rain = 0
KCL2 122040Z 03006G11KT 15/M02 A3029 RMK A01 T01501021  RH  031%=      5-min Rain = 0
KCL2 122041Z 03012KT 15/M02 A3029 RMK A01 T01511020  RH  031%=      5-min Rain = 0
KCL2 122042Z 03009KT 15/M03 A3029 RMK A01 T01491026  RH  030%=      5-min Rain = 0
KCL2 122043Z 03007KT 15/M03 A3029 RMK A01 T01471026  RH  030%=      5-min Rain = 0
KCL2 122044Z 03008KT 15/M03 A3029 RMK A01 T01461028  RH  030%=      5-min Rain = 0
KCL2 122045Z 01007KT 15/M03 A3029 RMK A01 T01451029  RH  030%=      5-min Rain = 0
KCL2 122046Z 01004KT 14/M03 A3029 RMK A01 T01441030  RH  030%=      5-min Rain = 0
KCL2 122047Z 35003KT 15/M03 A3029 RMK A01 T01451029  RH  030%=      5-min Rain = 0
KCL2 122048Z 34003KT 15/M03 A3029 RMK A01 T01471026  RH  030%=      5-min Rain = 0
KCL2 122049Z 02003KT 15/M03 A3028 RMK A01 T01481030  RH  029%=      5-min Rain = 0
KCL2 122050Z 03005KT 15/M03 A3029 RMK A01 T01461029  RH  030%=      5-min Rain = 0
KCL2 122051Z 04008KT 15/M03 A3029 RMK A01 T01451029  RH  030%=      5-min Rain = 0
KCL2 122052Z 05008KT 14/M03 A3029 RMK A01 T01441032  RH  029%=      5-min Rain = 0
KCL2 122053Z 03008KT 14/M03 A3029 RMK A01 T01441028  RH  030%=      5-min Rain = 0
KCL2 122054Z 04009KT 15/M03 A3029 RMK A01 T01461028  RH  030%=      5-min Rain = 0
KCL2 122055Z 06008KT 15/M03 A3029 RMK A01 T01471031  RH  029%=      5-min Rain = 0
KCL2 122056Z 06005KT 15/M03 A3029 RMK A01 T01461033  RH  029%=      5-min Rain = 0
KCL2 122057Z 08006G11KT 14/M03 A3028 RMK A01 T01441033  RH  029%=      5-min Rain = 0
KCL2 122058Z 08006KT 14/M03 A3028 RMK A01 T01431032  RH  029%=      5-min Rain = 0
KCL2 122059Z 09005KT 14/M03 A3028 RMK A01 T01431033  RH  029%=      5-min Rain = 0
KCL2 122100Z 09004KT 14/M03 A3028 RMK A01 T01421034  RH  030%=      5-min Rain = 0
KCL2 122101Z 08003KT 14/M03 A3028 RMK A01 T01401034  RH  030%=      5-min Rain = 0
KCL2 122102Z 04003KT 14/M03 A3028 RMK A01 T01401033  RH  030%=      5-min Rain = 0
KCL2 122103Z 02004KT 14/M03 A3028 RMK A01 T01421033  RH  030%=      5-min Rain = 0
KCL2 122104Z 03004KT 14/M03 A3028 RMK A01 T01431034  RH  029%=      5-min Rain = 0
KCL2 122105Z 04004KT 14/M03 A3028 RMK A01 T01431031  RH  030%=      5-min Rain = 0
KCL2 122106Z 05006KT 14/M03 A3028 RMK A01 T01431031  RH  030%=      5-min Rain = 0
KCL2 122107Z 05006KT 14/M03 A3028 RMK A01 T01441025  RH  031%=      5-min Rain = 0
KCL2 122108Z 05004KT 15/M03 A3028 RMK A01 T01451028  RH  030%=      5-min Rain = 0
KCL2 122109Z 05007KT 14/M03 A3028 RMK A01 T01441028  RH  030%=      5-min Rain = 0
KCL2 122110Z 02009KT 15/M02 A3028 RMK A01 T01461023  RH  031%=      5-min Rain = 0
KCL2 122111Z 03008KT 15/M02 A3028 RMK A01 T01501023  RH  030%=      5-min Rain = 0
KCL2 122112Z 02007KT 15/M02 A3028 RMK A01 T01501024  RH  030%=      5-min Rain = 0
KCL2 122113Z 02007KT 15/M03 A3028 RMK A01 T01501025  RH  030%=      5-min Rain = 0
KCL2 122114Z 02008KT 15/M03 A3028 RMK A01 T01481027  RH  030%=      5-min Rain = 0
KCL2 122115Z 02006KT 15/M03 A3028 RMK A01 T01471027  RH  030%=      5-min Rain = 0
KCL2 122116Z 03005KT 15/M03 A3028 RMK A01 T01501025  RH  030%=      5-min Rain = 0
KCL2 122117Z 06005KT 15/M03 A3028 RMK A01 T01531027  RH  029%=      5-min Rain = 0
KCL2 122118Z 04007KT 15/M03 A3028 RMK A01 T01541027  RH  029%=      5-min Rain = 0
KCL2 122119Z 01006KT 15/M03 A3028 RMK A01 T01541028  RH  028%=      5-min Rain = 0
KCL2 122120Z 06008KT 15/M03 A3028 RMK A01 T01521031  RH  028%=      5-min Rain = 0
KCL2 122121Z 07009KT 15/M03 A3028 RMK A01 T01511032  RH  028%=      5-min Rain = 0
KCL2 122122Z 07005KT 15/M03 A3028 RMK A01 T01501034  RH  028%=      5-min Rain = 0
KCL2 122123Z 08004KT 15/M04 A3028 RMK A01 T01471036  RH  028%=      5-min Rain = 0
KCL2 122124Z 06003KT 15/M04 A3028 RMK A01 T01461036  RH  028%=      5-min Rain = 0
KCL2 122125Z 07004KT 15/M04 A3028 RMK A01 T01451036  RH  028%=      5-min Rain = 0
KCL2 122126Z 10004KT 15/M04 A3028 RMK A01 T01451039  RH  028%=      5-min Rain = 0
KCL2 122127Z 09005KT 14/M04 A3028 RMK A01 T01441039  RH  028%=      5-min Rain = 0
KCL2 122128Z 09004KT 14/M04 A3028 RMK A01 T01441035  RH  029%=      5-min Rain = 0
KCL2 122129Z 05002KT 15/M04 A3027 RMK A01 T01461035  RH  029%=      5-min Rain = 0
KCL2 122130Z 05003KT 15/M04 A3027 RMK A01 T01461037  RH  028%=      5-min Rain = 0
KCL2 122131Z 03006KT 15/M03 A3027 RMK A01 T01461032  RH  029%=      5-min Rain = 0
KCL2 122132Z 03008KT 15/M03 A3027 RMK A01 T01511025  RH  030%=      5-min Rain = 0
KCL2 122133Z 04009KT 15/M03 A3027 RMK A01 T01511032  RH  028%=      5-min Rain = 0
KCL2 122134Z 04007KT 15/M03 A3027 RMK A01 T01491031  RH  029%=      5-min Rain = 0
KCL2 122135Z 04005KT 15/M03 A3027 RMK A01 T01501031  RH  029%=      5-min Rain = 0
KCL2 122136Z 00005KT 15/M03 A3027 RMK A01 T01471034  RH  028%=      5-min Rain = 0
KCL2 122137Z 01006KT 14/M03 A3027 RMK A01 T01441034  RH  029%=      5-min Rain = 0
KCL2 122138Z 35004KT 14/M03 A3027 RMK A01 T01441034  RH  029%=      5-min Rain = 0
KCL2 122139Z 34003KT 14/M03 A3027 RMK A01 T01441034  RH  029%=      5-min Rain = 0
KCL2 122140Z 04001KT 14/M03 A3027 RMK A01 T01431034  RH  029%=      5-min Rain = 0
KCL2 122141Z 04005KT 14/M03 A3027 RMK A01 T01441031  RH  030%=      5-min Rain = 0
KCL2 122142Z 03010KT 15/M03 A3027 RMK A01 T01471027  RH  030%=      5-min Rain = 0
KCL2 122143Z 02010KT 15/M03 A3027 RMK A01 T01481028  RH  029%=      5-min Rain = 0
KCL2 122144Z 04011KT 15/M03 A3027 RMK A01 T01491027  RH  030%=      5-min Rain = 0
KCL2 122145Z 05009KT 15/M03 A3027 RMK A01 T01481029  RH  029%=      5-min Rain = 0
KCL2 122146Z 03006KT 15/M03 A3027 RMK A01 T01471030  RH  029%=      5-min Rain = 0
KCL2 122147Z 05004KT 15/M03 A3027 RMK A01 T01451031  RH  030%=      5-min Rain = 0
KCL2 122148Z 05002KT 15/M03 A3027 RMK A01 T01451030  RH  030%=      5-min Rain = 0
KCL2 122149Z 04002KT 14/M03 A3026 RMK A01 T01441033  RH  029%=      5-min Rain = 0
KCL2 122150Z 02001KT 14/M03 A3026 RMK A01 T01431032  RH  030%=      5-min Rain = 0
KCL2 122151Z 04003KT 14/M03 A3026 RMK A01 T01441030  RH  030%=      5-min Rain = 0
KCL2 122152Z 05005G10KT 15/M03 A3026 RMK A01 T01471027  RH  030%=      5-min Rain = 0
KCL2 122153Z 03008KT 15/M02 A3027 RMK A01 T01511024  RH  030%=      5-min Rain = 0
KCL2 122154Z 04007KT 15/M03 A3026 RMK A01 T01521028  RH  029%=      5-min Rain = 0
KCL2 122155Z 03009KT 15/M03 A3026 RMK A01 T01501029  RH  029%=      5-min Rain = 0
KCL2 122156Z 03007KT 15/M03 A3026 RMK A01 T01491028  RH  029%=      5-min Rain = 0
KCL2 122157Z 03008KT 15/M03 A3026 RMK A01 T01491030  RH  029%=      5-min Rain = 0
KCL2 122158Z 02006KT 15/M03 A3026 RMK A01 T01481030  RH  029%=      5-min Rain = 0
KCL2 122159Z 04005KT 15/M03 A3026 RMK A01 T01481030  RH  029%=      5-min Rain = 0
KCL2 122200Z 04003KT 15/M03 A3026 RMK A01 T01471031  RH  029%=      5-min Rain = 0
KCL2 122201Z 07002KT 15/M03 A3026 RMK A01 T01461032  RH  029%=      5-min Rain = 0
KCL2 122202Z 13000KT 15/M03 A3026 RMK A01 T01451034  RH  029%=      5-min Rain = 0
KCL2 122203Z 08003KT 15/M03 A3026 RMK A01 T01461034  RH  029%=      5-min Rain = 0
KCL2 122204Z 08002KT 15/M03 A3026 RMK A01 T01461032  RH  029%=      5-min Rain = 0
KCL2 122205Z 33001KT 15/M03 A3026 RMK A01 T01461030  RH  029%=      5-min Rain = 0
KCL2 122206Z 35004KT 15/M03 A3026 RMK A01 T01481032  RH  029%=      5-min Rain = 0
KCL2 122207Z 35003KT 15/M03 A3026 RMK A01 T01481033  RH  028%=      5-min Rain = 0
KCL2 122208Z 02004KT 15/M03 A3026 RMK A01 T01481030  RH  029%=      5-min Rain = 0
KCL2 122209Z 01007KT 15/M03 A3026 RMK A01 T01511028  RH  029%=      5-min Rain = 0
KCL2 122210Z 02006KT 15/M03 A3026 RMK A01 T01521030  RH  028%=      5-min Rain = 0
KCL2 122211Z 04008KT 15/M03 A3026 RMK A01 T01521031  RH  028%=      5-min Rain = 0
KCL2 122212Z 04008KT 15/M03 A3026 RMK A01 T01501033  RH  028%=      5-min Rain = 0
KCL2 122213Z 04005KT 15/M03 A3026 RMK A01 T01491032  RH  029%=      5-min Rain = 0
KCL2 122214Z 01004KT 15/M03 A3026 RMK A01 T01471034  RH  028%=      5-min Rain = 0
KCL2 122215Z 35006KT 15/M03 A3026 RMK A01 T01481031  RH  029%=      5-min Rain = 0
KCL2 122216Z 00004KT 15/M03 A3026 RMK A01 T01501031  RH  029%=      5-min Rain = 0
KCL2 122217Z 00005KT 15/M03 A3026 RMK A01 T01491034  RH  028%=      5-min Rain = 0
KCL2 122218Z 04006KT 15/M03 A3026 RMK A01 T01481031  RH  029%=      5-min Rain = 0
KCL2 122219Z 06008KT 15/M03 A3026 RMK A01 T01481032  RH  029%=      5-min Rain = 0
KCL2 122220Z 06009KT 15/M03 A3026 RMK A01 T01491031  RH  029%=      5-min Rain = 0
KCL2 122221Z 07007KT 15/M03 A3026 RMK A01 T01491033  RH  028%=      5-min Rain = 0
KCL2 122222Z 07005KT 15/M04 A3025 RMK A01 T01451036  RH  028%=      5-min Rain = 0
KCL2 122223Z 07004KT 14/M04 A3025 RMK A01 T01431035  RH  029%=      5-min Rain = 0
KCL2 122224Z 04004KT 14/M03 A3025 RMK A01 T01431034  RH  029%=      5-min Rain = 0
KCL2 122225Z 04003KT 15/M03 A3025 RMK A01 T01461030  RH  029%=      5-min Rain = 0
KCL2 122226Z 01003KT 15/M03 A3025 RMK A01 T01471034  RH  028%=      5-min Rain = 0
KCL2 122227Z 02003KT 15/M03 A3025 RMK A01 T01471032  RH  029%=      5-min Rain = 0
KCL2 122228Z 01003KT 15/M03 A3025 RMK A01 T01501028  RH  029%=      5-min Rain = 0
KCL2 122229Z 08005KT 15/M03 A3025 RMK A01 T01531030  RH  028%=      5-min Rain = 0
KCL2 122230Z 08005KT 15/M03 A3025 RMK A01 T01521033  RH  028%=      5-min Rain = 0
KCL2 122231Z 06007KT 15/M03 A3025 RMK A01 T01501034  RH  028%=      5-min Rain = 0
KCL2 122232Z 04005KT 15/M04 A3025 RMK A01 T01481035  RH  028%=      5-min Rain = 0
KCL2 122233Z 05005KT 15/M03 A3025 RMK A01 T01471034  RH  028%=      5-min Rain = 0
KCL2 122234Z 09006KT 15/M03 A3025 RMK A01 T01481034  RH  028%=      5-min Rain = 0
KCL2 122235Z 09004KT 15/M04 A3025 RMK A01 T01491036  RH  028%=      5-min Rain = 0
KCL2 122236Z 05005KT 15/M04 A3025 RMK A01 T01481037  RH  028%=      5-min Rain = 0
KCL2 122237Z 04008KT 15/M03 A3025 RMK A01 T01481034  RH  028%=      5-min Rain = 0
KCL2 122238Z 05006KT 15/M03 A3025 RMK A01 T01501034  RH  028%=      5-min Rain = 0
KCL2 122239Z 06005KT 15/M04 A3025 RMK A01 T01481036  RH  028%=      5-min Rain = 0
KCL2 122240Z 07007KT 15/M04 A3025 RMK A01 T01471035  RH  028%=      5-min Rain = 0
KCL2 122241Z 06006KT 15/M04 A3025 RMK A01 T01471037  RH  028%=      5-min Rain = 0
KCL2 122242Z 07010KT 15/M04 A3025 RMK A01 T01471036  RH  028%=      5-min Rain = 0
KCL2 122243Z 06010KT 15/M04 A3025 RMK A01 T01481036  RH  028%=      5-min Rain = 0
KCL2 122244Z 06008KT 15/M04 A3025 RMK A01 T01461038  RH  028%=      5-min Rain = 0
KCL2 122245Z 06007KT 14/M04 A3025 RMK A01 T01441038  RH  028%=      5-min Rain = 0
KCL2 122246Z 07005KT 14/M04 A3024 RMK A01 T01431037  RH  028%=      5-min Rain = 0
KCL2 122247Z 07006KT 14/M04 A3024 RMK A01 T01441038  RH  028%=      5-min Rain = 0
KCL2 122248Z 08006KT 15/M04 A3024 RMK A01 T01451038  RH  028%=      5-min Rain = 0
KCL2 122249Z 11004KT 15/M04 A3024 RMK A01 T01451038  RH  028%=      5-min Rain = 0
KCL2 122250Z 10005KT 15/M04 A3024 RMK A01 T01451036  RH  028%=      5-min Rain = 0
KCL2 122251Z 09004KT 15/M04 A3024 RMK A01 T01461038  RH  028%=      5-min Rain = 0
KCL2 122252Z 07006KT 15/M04 A3024 RMK A01 T01451038  RH  028%=      5-min Rain = 0
KCL2 122253Z 07007KT 14/M04 A3024 RMK A01 T01441040  RH  028%=      5-min Rain = 0
KCL2 122254Z 08008KT 15/M04 A3024 RMK A01 T01451038  RH  028%=      5-min Rain = 0
KCL2 122255Z 09007KT 15/M04 A3024 RMK A01 T01451040  RH  028%=      5-min Rain = 0
KCL2 122256Z 07008KT 15/M04 A3024 RMK A01 T01451037  RH  028%=      5-min Rain = 0
KCL2 122257Z 07010KT 15/M03 A3024 RMK A01 T01471034  RH  028%=      5-min Rain = 0
KCL2 122258Z 06008KT 15/M04 A3024 RMK A01 T01481036  RH  028%=      5-min Rain = 0
KCL2 122259Z 04004KT 15/M04 A3024 RMK A01 T01461037  RH  028%=      5-min Rain = 0
KCL2 122300Z 06005G10KT 14/M04 A3024 RMK A01 T01441039  RH  028%=      5-min Rain = 0
KCL2 122301Z 07008KT 14/M04 A3024 RMK A01 T01431037  RH  029%=      5-min Rain = 0
KCL2 122302Z 07008KT 14/M04 A3024 RMK A01 T01441036  RH  028%=      5-min Rain = 0
KCL2 122303Z 06009KT 15/M04 A3024 RMK A01 T01461036  RH  028%=      5-min Rain = 0
KCL2 122304Z 06008KT 15/M04 A3024 RMK A01 T01471037  RH  028%=      5-min Rain = 0
KCL2 122305Z 06008KT 15/M04 A3024 RMK A01 T01461038  RH  028%=      5-min Rain = 0
KCL2 122306Z 06007KT 15/M04 A3024 RMK A01 T01451039  RH  028%=      5-min Rain = 0
KCL2 122307Z 07008KT 14/M04 A3024 RMK A01 T01441040  RH  028%=      5-min Rain = 0
KCL2 122308Z 07009KT 14/M04 A3024 RMK A01 T01431039  RH  028%=      5-min Rain = 0
KCL2 122309Z 06008KT 14/M04 A3024 RMK A01 T01431037  RH  029%=      5-min Rain = 0
KCL2 122310Z 06007KT 14/M04 A3024 RMK A01 T01431037  RH  029%=      5-min Rain = 0
KCL2 122311Z 06004KT 14/M04 A3024 RMK A01 T01421038  RH  028%=      5-min Rain = 0
KCL2 122312Z 08001KT 14/M04 A3024 RMK A01 T01411039  RH  029%=      5-min Rain = 0
KCL2 122313Z 10003KT 14/M04 A3024 RMK A01 T01401037  RH  029%=      5-min Rain = 0
KCL2 122314Z 10007KT 14/M04 A3024 RMK A01 T01421036  RH  029%=      5-min Rain = 0
KCL2 122315Z 07008KT 14/M04 A3024 RMK A01 T01421035  RH  029%=      5-min Rain = 0
KCL2 122316Z 06007KT 14/M04 A3024 RMK A01 T01431035  RH  029%=      5-min Rain = 0
KCL2 122317Z 06006KT 14/M04 A3024 RMK A01 T01431037  RH  029%=      5-min Rain = 0
KCL2 122318Z 06006KT 14/M04 A3024 RMK A01 T01421038  RH  029%=      5-min Rain = 0
KCL2 122319Z 05008KT 14/M04 A3024 RMK A01 T01421036  RH  029%=      5-min Rain = 0
KCL2 122320Z 06008KT 14/M03 A3024 RMK A01 T01431034  RH  029%=      5-min Rain = 0
KCL2 122321Z 07006KT 14/M03 A3024 RMK A01 T01431034  RH  029%=      5-min Rain = 0
KCL2 122322Z 07006KT 14/M04 A3024 RMK A01 T01421035  RH  029%=      5-min Rain = 0
KCL2 122323Z 04006KT 14/M03 A3024 RMK A01 T01421033  RH  030%=      5-min Rain = 0
KCL2 122324Z 06007KT 14/M03 A3024 RMK A01 T01431032  RH  030%=      5-min Rain = 0
KCL2 122325Z 07008KT 14/M03 A3024 RMK A01 T01431034  RH  029%=      5-min Rain = 0
KCL2 122326Z 07008KT 14/M04 A3024 RMK A01 T01421035  RH  029%=      5-min Rain = 0
KCL2 122327Z 08006KT 14/M04 A3024 RMK A01 T01411036  RH  029%=      5-min Rain = 0
KCL2 122328Z 11003KT 14/M04 A3024 RMK A01 T01401036  RH  029%=      5-min Rain = 0
KCL2 122329Z 10004KT 14/M04 A3024 RMK A01 T01391038  RH  029%=      5-min Rain = 0
KCL2 122330Z 09005KT 14/M04 A3024 RMK A01 T01381036  RH  030%=      5-min Rain = 0
KCL2 122331Z 09007KT 14/M03 A3024 RMK A01 T01391034  RH  030%=      5-min Rain = 0
KCL2 122332Z 06008KT 14/M03 A3024 RMK A01 T01381034  RH  030%=      5-min Rain = 0
KCL2 122333Z 07005KT 14/M04 A3024 RMK A01 T01381036  RH  030%=      5-min Rain = 0
KCL2 122334Z 06006KT 14/M04 A3024 RMK A01 T01371036  RH  030%=      5-min Rain = 0
KCL2 122335Z 09004KT 14/M04 A3024 RMK A01 T01371037  RH  030%=      5-min Rain = 0
KCL2 122336Z 06005KT 14/M04 A3024 RMK A01 T01371036  RH  030%=      5-min Rain = 0
KCL2 122337Z 06006KT 14/M04 A3024 RMK A01 T01371036  RH  030%=      5-min Rain = 0
KCL2 122338Z 06006KT 14/M04 A3024 RMK A01 T01381036  RH  030%=      5-min Rain = 0
KCL2 122339Z 05008KT 14/M04 A3024 RMK A01 T01381035  RH  030%=      5-min Rain = 0
KCL2 122340Z 05007KT 14/M04 A3024 RMK A01 T01381036  RH  030%=      5-min Rain = 0
KCL2 122341Z 06007KT 14/M04 A3024 RMK A01 T01381035  RH  030%=      5-min Rain = 0
KCL2 122342Z 06008KT 14/M04 A3024 RMK A01 T01391035  RH  030%=      5-min Rain = 0
KCL2 122343Z 06006KT 14/M04 A3024 RMK A01 T01391037  RH  029%=      5-min Rain = 0
KCL2 122344Z 06006KT 14/M04 A3024 RMK A01 T01381038  RH  029%=      5-min Rain = 0
KCL2 122345Z 06004KT 14/M04 A3024 RMK A01 T01381038  RH  029%=      5-min Rain = 0
KCL2 122346Z 07007KT 14/M04 A3024 RMK A01 T01381036  RH  030%=      5-min Rain = 0
KCL2 122347Z 08007KT 14/M04 A3024 RMK A01 T01381037  RH  029%=      5-min Rain = 0
KCL2 122348Z 08008KT 14/M04 A3024 RMK A01 T01381039  RH  029%=      5-min Rain = 0
KCL2 122349Z 08007KT 14/M04 A3024 RMK A01 T01371040  RH  029%=      5-min Rain = 0
KCL2 122350Z 06008KT 14/M04 A3024 RMK A01 T01371039  RH  029%=      5-min Rain = 0
KCL2 122351Z 06008KT 14/M04 A3024 RMK A01 T01371039  RH  029%=      5-min Rain = 0
KCL2 122352Z 08007KT 14/M04 A3024 RMK A01 T01371038  RH  029%=      5-min Rain = 0
KCL2 122353Z 07008KT 14/M04 A3023 RMK A01 T01371040  RH  029%=      5-min Rain = 0
KCL2 122354Z 07006KT 14/M04 A3023 RMK A01 T01361040  RH  029%=      5-min Rain = 0
KCL2 122355Z 09006KT 14/M04 A3023 RMK A01 T01361040  RH  029%=      5-min Rain = 0
KCL2 122356Z 08006KT 14/M04 A3023 RMK A01 T01361040  RH  029%=      5-min Rain = 0
KCL2 122357Z 07006KT 14/M04 A3023 RMK A01 T01371040  RH  029%=      5-min Rain = 0
KCL2 122358Z 07008KT 14/M04 A3023 RMK A01 T01371041  RH  029%=      5-min Rain = 0
KCL2 122359Z 06007KT 14/M04 A3023 RMK A01 T01361041  RH  029%=      5-min Rain = 0
KCL2 130000Z 06008KT 14/M04 A3023 RMK A01 T01351040  RH  029%=      5-min Rain = 0
KCL2 130001Z 06008KT 14/M04 A3023 RMK A01 T01351039  RH  030%=      5-min Rain = 0
KCL2 130002Z 06007KT 13/M04 A3023 RMK A01 T01341038  RH  030%=      5-min Rain = 0
KCL2 130003Z 06005KT 13/M04 A3023 RMK A01 T01341038  RH  030%=      5-min Rain = 0
KCL2 130004Z 05007KT 13/M04 A3023 RMK A01 T01341037  RH  030%=      5-min Rain = 0
KCL2 130005Z 06008KT 13/M04 A3023 RMK A01 T01341038  RH  030%=      5-min Rain = 0
KCL2 130006Z 06009KT 13/M04 A3023 RMK A01 T01331038  RH  030%=      5-min Rain = 0
KCL2 130007Z 05008KT 13/M04 A3023 RMK A01 T01331038  RH  030%=      5-min Rain = 0
KCL2 130008Z 05008KT 13/M04 A3023 RMK A01 T01321038  RH  030%=      5-min Rain = 0
KCL2 130009Z 06008KT 13/M04 A3023 RMK A01 T01311038  RH  031%=      5-min Rain = 0
KCL2 130010Z 06008KT 13/M04 A3023 RMK A01 T01311038  RH  031%=      5-min Rain = 0
KCL2 130011Z 07007KT 13/M04 A3024 RMK A01 T01311039  RH  030%=      5-min Rain = 0
KCL2 130012Z 07006KT 13/M04 A3024 RMK A01 T01311039  RH  030%=      5-min Rain = 0
KCL2 130013Z 07007KT 13/M04 A3024 RMK A01 T01311039  RH  030%=      5-min Rain = 0
KCL2 130014Z 07007KT 13/M04 A3024 RMK A01 T01311040  RH  030%=      5-min Rain = 0
KCL2 130015Z 07007KT 13/M04 A3023 RMK A01 T01311040  RH  030%=      5-min Rain = 0
KCL2 130016Z 07006KT 13/M04 A3023 RMK A01 T01311040  RH  030%=      5-min Rain = 0
KCL2 130017Z 07006KT 13/M04 A3023 RMK A01 T01301040  RH  030%=      5-min Rain = 0
KCL2 130018Z 08005KT 13/M04 A3023 RMK A01 T01301039  RH  030%=      5-min Rain = 0
KCL2 130019Z 08005KT 13/M04 A3024 RMK A01 T01301039  RH  031%=      5-min Rain = 0
KCL2 130020Z 07007KT 13/M04 A3024 RMK A01 T01301040  RH  030%=      5-min Rain = 0
KCL2 130021Z 07008KT 13/M04 A3024 RMK A01 T01301040  RH  030%=      5-min Rain = 0
KCL2 130022Z 06008KT 13/M04 A3024 RMK A01 T01291040  RH  031%=      5-min Rain = 0
KCL2 130023Z 07007KT 13/M04 A3024 RMK A01 T01281040  RH  031%=      5-min Rain = 0
KCL2 130024Z 06008KT 13/M04 A3024 RMK A01 T01271040  RH  031%=      5-min Rain = 0
KCL2 130025Z 06007KT 13/M04 A3024 RMK A01 T01271040  RH  031%=      5-min Rain = 0
KCL2 130026Z 06007KT 13/M04 A3024 RMK A01 T01271040  RH  031%=      5-min Rain = 0
KCL2 130027Z 06007KT 13/M04 A3024 RMK A01 T01261040  RH  031%=      5-min Rain = 0
KCL2 130028Z 06008KT 13/M04 A3024 RMK A01 T01261039  RH  031%=      5-min Rain = 0
KCL2 130029Z 06007KT 13/M04 A3024 RMK A01 T01251040  RH  031%=      5-min Rain = 0
KCL2 130030Z 06007KT 13/M04 A3024 RMK A01 T01251040  RH  031%=      5-min Rain = 0
KCL2 130031Z 07007KT 13/M04 A3024 RMK A01 T01251040  RH  031%=      5-min Rain = 0
KCL2 130032Z 07006KT 13/M04 A3024 RMK A01 T01251040  RH  031%=      5-min Rain = 0
KCL2 130033Z 07005KT 13/M04 A3024 RMK A01 T01251041  RH  031%=      5-min Rain = 0
KCL2 130034Z 07006KT 12/M04 A3024 RMK A01 T01241041  RH  031%=      5-min Rain = 0
KCL2 130035Z 07006KT 12/M04 A3024 RMK A01 T01241041  RH  031%=      5-min Rain = 0
KCL2 130036Z 07006KT 12/M04 A3024 RMK A01 T01231041  RH  032%=      5-min Rain = 0
KCL2 130037Z 07006KT 12/M04 A3024 RMK A01 T01231041  RH  032%=      5-min Rain = 0
KCL2 130038Z 07007KT 12/M04 A3024 RMK A01 T01231041  RH  032%=      5-min Rain = 0
KCL2 130039Z 07006KT 12/M04 A3024 RMK A01 T01231040  RH  032%=      5-min Rain = 0
KCL2 130040Z 07006KT 12/M04 A3024 RMK A01 T01221040  RH  032%=      5-min Rain = 0
KCL2 130041Z 07006KT 12/M04 A3024 RMK A01 T01221040  RH  032%=      5-min Rain = 0
KCL2 130042Z 07006KT 12/M04 A3024 RMK A01 T01211040  RH  032%=      5-min Rain = 0
KCL2 130043Z 07007KT 12/M04 A3024 RMK A01 T01191039  RH  033%=      5-min Rain = 0
KCL2 130044Z 07006KT 12/M04 A3024 RMK A01 T01181039  RH  033%=      5-min Rain = 0
KCL2 130045Z 07007KT 12/M04 A3024 RMK A01 T01181039  RH  033%=      5-min Rain = 0
KCL2 130046Z 07006KT 12/M04 A3024 RMK A01 T01181039  RH  033%=      5-min Rain = 0
KCL2 130047Z 07006KT 12/M04 A3024 RMK A01 T01181039  RH  033%=      5-min Rain = 0
KCL2 130048Z 08006KT 12/M04 A3024 RMK A01 T01191039  RH  033%=      5-min Rain = 0
KCL2 130049Z 08005KT 12/M04 A3024 RMK A01 T01191039  RH  033%=      5-min Rain = 0
KCL2 130050Z 08005KT 12/M04 A3024 RMK A01 T01191039  RH  033%=      5-min Rain = 0
KCL2 130051Z 07005KT 12/M04 A3024 RMK A01 T01191038  RH  033%=      5-min Rain = 0
KCL2 130052Z 07005KT 12/M04 A3024 RMK A01 T01181039  RH  033%=      5-min Rain = 0
KCL2 130053Z 07005KT 12/M04 A3024 RMK A01 T01181038  RH  033%=      5-min Rain = 0
KCL2 130054Z 07005KT 12/M04 A3024 RMK A01 T01171038  RH  034%=      5-min Rain = 0
KCL2 130055Z 07005KT 12/M04 A3024 RMK A01 T01151038  RH  034%=      5-min Rain = 0
KCL2 130056Z 07005KT 11/M04 A3024 RMK A01 T01141039  RH  034%=      5-min Rain = 0
KCL2 130057Z 07005KT 11/M04 A3024 RMK A01 T01141038  RH  034%=      5-min Rain = 0
KCL2 130058Z 07005KT 11/M04 A3024 RMK A01 T01141038  RH  034%=      5-min Rain = 0
KCL2 130059Z 07006KT 11/M04 A3024 RMK A01 T01141038  RH  034%=      5-min Rain = 0
KCL2 130100Z 07006KT 11/M04 A3024 RMK A01 T01141038  RH  034%=      5-min Rain = 0
KCL2 130101Z 07005KT 11/M04 A3024 RMK A01 T01131038  RH  034%=      5-min Rain = 0
KCL2 130102Z 07005KT 11/M04 A3024 RMK A01 T01121038  RH  035%=      5-min Rain = 0
KCL2 130103Z 07006KT 11/M04 A3024 RMK A01 T01121038  RH  035%=      5-min Rain = 0
KCL2 130104Z 08005KT 11/M04 A3024 RMK A01 T01121039  RH  035%=      5-min Rain = 0
KCL2 130105Z 07005KT 11/M04 A3024 RMK A01 T01131038  RH  034%=      5-min Rain = 0
KCL2 130106Z 08005KT 11/M04 A3024 RMK A01 T01131039  RH  034%=      5-min Rain = 0
KCL2 130107Z 08005KT 11/M04 A3024 RMK A01 T01141038  RH  034%=      5-min Rain = 0
KCL2 130108Z 08004KT 11/M04 A3024 RMK A01 T01141038  RH  034%=      5-min Rain = 0
KCL2 130109Z 08005KT 11/M04 A3024 RMK A01 T01131038  RH  034%=      5-min Rain = 0
KCL2 130110Z 08005KT 11/M04 A3024 RMK A01 T01111038  RH  035%=      5-min Rain = 0
KCL2 130111Z 08005KT 11/M04 A3024 RMK A01 T01101038  RH  035%=      5-min Rain = 0
KCL2 130112Z 08005KT 11/M04 A3024 RMK A01 T01081037  RH  036%=      5-min Rain = 0
KCL2 130113Z 08005KT 11/M04 A3024 RMK A01 T01051037  RH  037%=      5-min Rain = 0
KCL2 130114Z 08005KT 11/M04 A3024 RMK A01 T01051038  RH  037%=      5-min Rain = 0
KCL2 130115Z 08005KT 10/M04 A3024 RMK A01 T01041039  RH  036%=      5-min Rain = 0
KCL2 130116Z 08005KT 11/M04 A3024 RMK A01 T01051039  RH  036%=      5-min Rain = 0
KCL2 130117Z 08005KT 11/M04 A3024 RMK A01 T01051039  RH  036%=      5-min Rain = 0
KCL2 130118Z 08005KT 11/M04 A3024 RMK A01 T01051038  RH  036%=      5-min Rain = 0
KCL2 130119Z 08006KT 11/M04 A3025 RMK A01 T01051037  RH  037%=      5-min Rain = 0
KCL2 130120Z 08006KT 10/M04 A3025 RMK A01 T01041037  RH  037%=      5-min Rain = 0
KCL2 130121Z 08006KT 10/M04 A3025 RMK A01 T01041037  RH  037%=      5-min Rain = 0
KCL2 130122Z 08005KT 11/M04 A3025 RMK A01 T01051037  RH  037%=      5-min Rain = 0
KCL2 130123Z 08005KT 11/M04 A3025 RMK A01 T01051037  RH  037%=      5-min Rain = 0
KCL2 130124Z 09005KT 11/M04 A3025 RMK A01 T01061036  RH  037%=      5-min Rain = 0
KCL2 130125Z 09005KT 10/M04 A3025 RMK A01 T01041036  RH  037%=      5-min Rain = 0
KCL2 130126Z 09005KT 10/M04 A3025 RMK A01 T01021035  RH  038%=      5-min Rain = 0
KCL2 130127Z 09005KT 10/M03 A3025 RMK A01 T01011034  RH  038%=      5-min Rain = 0
KCL2 130128Z 09005KT 10/M03 A3025 RMK A01 T01001034  RH  039%=      5-min Rain = 0
KCL2 130129Z 09005KT 10/M03 A3025 RMK A01 T01001034  RH  039%=      5-min Rain = 0
KCL2 130130Z 09005KT 10/M03 A3025 RMK A01 T00991034  RH  039%=      5-min Rain = 0
KCL2 130131Z 09005KT 10/M03 A3025 RMK A01 T00981033  RH  039%=      5-min Rain = 0
KCL2 130132Z 09006KT 10/M03 A3025 RMK A01 T00971034  RH  040%=      5-min Rain = 0
KCL2 130133Z 09006KT 10/M03 A3025 RMK A01 T00971034  RH  040%=      5-min Rain = 0
KCL2 130134Z 09006KT 10/M03 A3025 RMK A01 T00971034  RH  040%=      5-min Rain = 0
KCL2 130135Z 09006KT 10/M03 A3025 RMK A01 T00961034  RH  040%=      5-min Rain = 0
KCL2 130136Z 09006KT 10/M03 A3025 RMK A01 T00961034  RH  040%=      5-min Rain = 0
KCL2 130137Z 09006KT 10/M03 A3025 RMK A01 T00951033  RH  040%=      5-min Rain = 0
KCL2 130138Z 09005KT 10/M03 A3025 RMK A01 T00951034  RH  040%=      5-min Rain = 0
KCL2 130139Z 09005KT 09/M03 A3025 RMK A01 T00941034  RH  040%=      5-min Rain = 0
KCL2 130140Z 09005KT 09/M04 A3025 RMK A01 T00941035  RH  040%=      5-min Rain = 0
KCL2 130141Z 08005KT 09/M04 A3025 RMK A01 T00941035  RH  040%=      5-min Rain = 0
KCL2 130142Z 08005KT 09/M04 A3025 RMK A01 T00941035  RH  040%=      5-min Rain = 0
KCL2 130143Z 09005KT 10/M04 A3025 RMK A01 T00951035  RH  040%=      5-min Rain = 0
KCL2 130144Z 08005KT 10/M03 A3025 RMK A01 T00951034  RH  040%=      5-min Rain = 0
KCL2 130145Z 09005KT 10/M03 A3025 RMK A01 T00951034  RH  040%=      5-min Rain = 0
KCL2 130146Z 08005KT 10/M03 A3025 RMK A01 T00951034  RH  040%=      5-min Rain = 0
KCL2 130147Z 09006KT 09/M03 A3025 RMK A01 T00941034  RH  040%=      5-min Rain = 0
KCL2 130148Z 09006KT 09/M03 A3025 RMK A01 T00941034  RH  040%=      5-min Rain = 0
KCL2 130149Z 08006KT 09/M03 A3025 RMK A01 T00931034  RH  041%=      5-min Rain = 0
KCL2 130150Z 08006KT 09/M03 A3025 RMK A01 T00931034  RH  041%=      5-min Rain = 0
KCL2 130151Z 08006KT 09/M03 A3025 RMK A01 T00931034  RH  041%=      5-min Rain = 0
KCL2 130152Z 08006KT 09/M04 A3025 RMK A01 T00931035  RH  040%=      5-min Rain = 0
KCL2 130153Z 08006KT 09/M04 A3025 RMK A01 T00941035  RH  040%=      5-min Rain = 0
KCL2 130154Z 08006KT 10/M04 A3025 RMK A01 T00971036  RH  039%=      5-min Rain = 0
KCL2 130155Z 08006KT 10/M04 A3025 RMK A01 T00991036  RH  039%=      5-min Rain = 0
KCL2 130156Z 08006KT 10/M04 A3025 RMK A01 T00991035  RH  039%=      5-min Rain = 0
KCL2 130157Z 08005KT 10/M04 A3025 RMK A01 T00981036  RH  039%=      5-min Rain = 0
KCL2 130158Z 08005KT 10/M04 A3025 RMK A01 T00971036  RH  039%=      5-min Rain = 0
KCL2 130159Z 08006KT 10/M04 A3025 RMK A01 T00981036  RH  039%=      5-min Rain = 0
KCL2 130200Z 08006KT 10/M04 A3025 RMK A01 T00981036  RH  039%=      5-min Rain = 0
KCL2 130201Z 08005KT 10/M04 A3025 RMK A01 T00981036  RH  039%=      5-min Rain = 0
KCL2 130202Z 08006KT 10/M04 A3025 RMK A01 T00981036  RH  039%=      5-min Rain = 0
KCL2 130203Z 08006KT 10/M04 A3025 RMK A01 T00971036  RH  039%=      5-min Rain = 0
KCL2 130204Z 08007KT 10/M04 A3025 RMK A01 T00961037  RH  039%=      5-min Rain = 0
KCL2 130205Z 08005KT 10/M04 A3025 RMK A01 T00961037  RH  039%=      5-min Rain = 0
KCL2 130206Z 08005KT 10/M04 A3025 RMK A01 T00961037  RH  039%=      5-min Rain = 0
KCL2 130207Z 08006KT 10/M04 A3025 RMK A01 T00961038  RH  039%=      5-min Rain = 0
KCL2 130208Z 08006KT 10/M04 A3025 RMK A01 T00971039  RH  038%=      5-min Rain = 0
KCL2 130209Z 08006KT 10/M04 A3025 RMK A01 T00991039  RH  038%=      5-min Rain = 0
KCL2 130210Z 08006KT 10/M04 A3025 RMK A01 T00991038  RH  038%=      5-min Rain = 0
KCL2 130211Z 08006KT 10/M04 A3025 RMK A01 T00991039  RH  038%=      5-min Rain = 0
KCL2 130212Z 08006KT 10/M04 A3025 RMK A01 T00981039  RH  038%=      5-min Rain = 0
KCL2 130213Z 08005KT 10/M04 A3025 RMK A01 T00991039  RH  037%=      5-min Rain = 0
KCL2 130214Z 08006KT 10/M04 A3025 RMK A01 T00981039  RH  038%=      5-min Rain = 0
KCL2 130215Z 08005KT 10/M04 A3025 RMK A01 T00971040  RH  038%=      5-min Rain = 0
KCL2 130216Z 08006KT 10/M04 A3025 RMK A01 T00971040  RH  038%=      5-min Rain = 0
KCL2 130217Z 08005KT 10/M04 A3025 RMK A01 T00981040  RH  038%=      5-min Rain = 0
KCL2 130218Z 08005KT 10/M04 A3025 RMK A01 T00981041  RH  037%=      5-min Rain = 0
KCL2 130219Z 08005KT 10/M04 A3025 RMK A01 T00981040  RH  038%=      5-min Rain = 0
KCL2 130220Z 08005KT 10/M04 A3025 RMK A01 T00981040  RH  038%=      5-min Rain = 0
KCL2 130221Z 08005KT 10/M04 A3025 RMK A01 T00981041  RH  038%=      5-min Rain = 0
KCL2 130222Z 08007KT 10/M04 A3025 RMK A01 T00981041  RH  037%=      5-min Rain = 0
KCL2 130223Z 07006KT 10/M04 A3025 RMK A01 T00981041  RH  037%=      5-min Rain = 0
KCL2 130224Z 07006KT 10/M04 A3025 RMK A01 T00981041  RH  037%=      5-min Rain = 0
KCL2 130225Z 07007KT 10/M04 A3025 RMK A01 T00991041  RH  037%=      5-min Rain = 0
KCL2 130226Z 07007KT 10/M04 A3025 RMK A01 T01001042  RH  037%=      5-min Rain = 0
KCL2 130227Z 07007KT 10/M04 A3025 RMK A01 T01021042  RH  036%=      5-min Rain = 0
KCL2 130228Z 08007KT 10/M04 A3025 RMK A01 T01021042  RH  036%=      5-min Rain = 0
KCL2 130229Z 08006KT 10/M04 A3025 RMK A01 T01031042  RH  036%=      5-min Rain = 0
KCL2 130230Z 07006KT 10/M04 A3025 RMK A01 T01021042  RH  036%=      5-min Rain = 0
KCL2 130231Z 08006KT 10/M04 A3025 RMK A01 T01011042  RH  036%=      5-min Rain = 0
KCL2 130232Z 08006KT 10/M04 A3025 RMK A01 T01001042  RH  036%=      5-min Rain = 0
KCL2 130233Z 08006KT 10/M04 A3025 RMK A01 T01001042  RH  037%=      5-min Rain = 0
KCL2 130234Z 08006KT 10/M04 A3025 RMK A01 T01001042  RH  037%=      5-min Rain = 0
KCL2 130235Z 08006KT 10/M04 A3025 RMK A01 T00991042  RH  037%=      5-min Rain = 0
KCL2 130236Z 08006KT 10/M04 A3025 RMK A01 T00991043  RH  036%=      5-min Rain = 0
KCL2 130237Z 08006KT 10/M04 A3025 RMK A01 T01001043  RH  036%=      5-min Rain = 0
KCL2 130238Z 07006KT 10/M04 A3025 RMK A01 T00991043  RH  036%=      5-min Rain = 0
KCL2 130239Z 08005KT 10/M04 A3025 RMK A01 T00991043  RH  036%=      5-min Rain = 0
KCL2 130240Z 08005KT 10/M04 A3025 RMK A01 T00981043  RH  037%=      5-min Rain = 0
KCL2 130241Z 08006KT 10/M04 A3025 RMK A01 T00971043  RH  037%=      5-min Rain = 0
KCL2 130242Z 08006KT 10/M04 A3025 RMK A01 T00971044  RH  037%=      5-min Rain = 0
KCL2 130243Z 08006KT 10/M04 A3025 RMK A01 T00971044  RH  037%=      5-min Rain = 0
KCL2 130244Z 08006KT 10/M05 A3025 RMK A01 T00981045  RH  036%=      5-min Rain = 0
KCL2 130245Z 08006KT 10/M04 A3025 RMK A01 T00981044  RH  036%=      5-min Rain = 0
KCL2 130246Z 08006KT 10/M04 A3025 RMK A01 T00981044  RH  036%=      5-min Rain = 0
KCL2 130247Z 08005KT 10/M05 A3025 RMK A01 T00981045  RH  036%=      5-min Rain = 0
KCL2 130248Z 08005KT 10/M04 A3025 RMK A01 T00981044  RH  036%=      5-min Rain = 0
KCL2 130249Z 08006KT 10/M05 A3025 RMK A01 T00971045  RH  037%=      5-min Rain = 0
KCL2 130250Z 08006KT 10/M05 A3025 RMK A01 T00971045  RH  037%=      5-min Rain = 0
KCL2 130251Z 08005KT 10/M05 A3025 RMK A01 T00961045  RH  037%=      5-min Rain = 0
KCL2 130252Z 08006KT 10/M05 A3025 RMK A01 T00971045  RH  037%=      5-min Rain = 0
KCL2 130253Z 08005KT 10/M05 A3025 RMK A01 T00971045  RH  036%=      5-min Rain = 0
KCL2 130254Z 08006KT 10/M05 A3025 RMK A01 T00961045  RH  036%=      5-min Rain = 0
KCL2 130255Z 08006KT 10/M05 A3025 RMK A01 T00961045  RH  037%=      5-min Rain = 0
KCL2 130256Z 08006KT 10/M05 A3025 RMK A01 T00961046  RH  037%=      5-min Rain = 0
KCL2 130257Z 08006KT 10/M05 A3025 RMK A01 T00951045  RH  037%=      5-min Rain = 0
KCL2 130258Z 08006KT 10/M05 A3025 RMK A01 T00951046  RH  037%=      5-min Rain = 0
KCL2 130259Z 08006KT 10/M05 A3025 RMK A01 T00951046  RH  037%=      5-min Rain = 0
KCL2 130300Z 08006KT 10/M05 A3025 RMK A01 T00951046  RH  037%=      5-min Rain = 0
KCL2 130301Z 08006KT 10/M05 A3025 RMK A01 T00951045  RH  037%=      5-min Rain = 0
KCL2 130302Z 08005KT 09/M05 A3025 RMK A01 T00941046  RH  037%=      5-min Rain = 0
KCL2 130303Z 08005KT 09/M05 A3025 RMK A01 T00941045  RH  037%=      5-min Rain = 0
KCL2 130304Z 08005KT 09/M05 A3025 RMK A01 T00931045  RH  037%=      5-min Rain = 0
KCL2 130305Z 07005KT 09/M05 A3025 RMK A01 T00931046  RH  037%=      5-min Rain = 0
KCL2 130306Z 08006KT 09/M05 A3025 RMK A01 T00931046  RH  037%=      5-min Rain = 0
KCL2 130307Z 08006KT 09/M05 A3025 RMK A01 T00941046  RH  037%=      5-min Rain = 0
KCL2 130308Z 07006KT 10/M05 A3026 RMK A01 T00951047  RH  036%=      5-min Rain = 0
KCL2 130309Z 08006KT 10/M05 A3026 RMK A01 T00961047  RH  036%=      5-min Rain = 0
KCL2 130310Z 08007KT 10/M05 A3026 RMK A01 T00961047  RH  036%=      5-min Rain = 0
KCL2 130311Z 08006KT 10/M05 A3026 RMK A01 T00981047  RH  036%=      5-min Rain = 0
KCL2 130312Z 08005KT 10/M05 A3026 RMK A01 T00981047  RH  036%=      5-min Rain = 0
KCL2 130313Z 08006KT 10/M05 A3026 RMK A01 T00981047  RH  036%=      5-min Rain = 0
KCL2 130314Z 08006KT 10/M05 A3026 RMK A01 T00981047  RH  036%=      5-min Rain = 0
KCL2 130315Z 08006KT 10/M05 A3026 RMK A01 T00971047  RH  036%=      5-min Rain = 0
KCL2 130316Z 08005KT 10/M05 A3026 RMK A01 T00971047  RH  036%=      5-min Rain = 0
KCL2 130317Z 08005KT 10/M05 A3026 RMK A01 T00971047  RH  036%=      5-min Rain = 0
KCL2 130318Z 08005KT 10/M05 A3026 RMK A01 T00961047  RH  036%=      5-min Rain = 0
KCL2 130319Z 08005KT 09/M05 A3026 RMK A01 T00941047  RH  037%=      5-min Rain = 0
KCL2 130320Z 08005KT 09/M05 A3026 RMK A01 T00931047  RH  037%=      5-min Rain = 0
KCL2 130321Z 08005KT 09/M05 A3026 RMK A01 T00931046  RH  037%=      5-min Rain = 0
KCL2 130322Z 08005KT 09/M05 A3026 RMK A01 T00911046  RH  037%=      5-min Rain = 0
KCL2 130323Z 08005KT 09/M05 A3026 RMK A01 T00911046  RH  038%=      5-min Rain = 0
KCL2 130324Z 08005KT 09/M05 A3026 RMK A01 T00901046  RH  038%=      5-min Rain = 0
KCL2 130325Z 08005KT 09/M05 A3026 RMK A01 T00891046  RH  038%=      5-min Rain = 0
KCL2 130326Z 08005KT 09/M05 A3026 RMK A01 T00891046  RH  038%=      5-min Rain = 0
KCL2 130327Z 08005KT 09/M05 A3026 RMK A01 T00891045  RH  038%=      5-min Rain = 0
KCL2 130328Z 08005KT 09/M05 A3026 RMK A01 T00891046  RH  038%=      5-min Rain = 0
KCL2 130329Z 08005KT 09/M05 A3026 RMK A01 T00891047  RH  038%=      5-min Rain = 0
KCL2 130330Z 08005KT 09/M05 A3026 RMK A01 T00901046  RH  038%=      5-min Rain = 0
KCL2 130331Z 07006KT 09/M05 A3026 RMK A01 T00901047  RH  038%=      5-min Rain = 0
KCL2 130332Z 07005KT 09/M05 A3026 RMK A01 T00901046  RH  038%=      5-min Rain = 0
KCL2 130333Z 08006KT 09/M05 A3026 RMK A01 T00891046  RH  038%=      5-min Rain = 0
KCL2 130334Z 08005KT 09/M05 A3026 RMK A01 T00891046  RH  038%=      5-min Rain = 0
KCL2 130335Z 08005KT 09/M05 A3026 RMK A01 T00881045  RH  039%=      5-min Rain = 0
KCL2 130336Z 08005KT 09/M05 A3026 RMK A01 T00871045  RH  039%=      5-min Rain = 0
KCL2 130337Z 08005KT 09/M05 A3026 RMK A01 T00871045  RH  039%=      5-min Rain = 0
KCL2 130338Z 08005KT 09/M05 A3026 RMK A01 T00861045  RH  039%=      5-min Rain = 0
KCL2 130339Z 08005KT 09/M05 A3026 RMK A01 T00861045  RH  039%=      5-min Rain = 0
KCL2 130340Z 08005KT 09/M05 A3026 RMK A01 T00861045  RH  039%=      5-min Rain = 0
KCL2 130341Z 08005KT 09/M05 A3026 RMK A01 T00851045  RH  040%=      5-min Rain = 0
KCL2 130342Z 08005KT 08/M05 A3026 RMK A01 T00841045  RH  040%=      5-min Rain = 0
KCL2 130343Z 07006KT 08/M04 A3026 RMK A01 T00841044  RH  040%=      5-min Rain = 0
KCL2 130344Z 08005KT 09/M05 A3026 RMK A01 T00851045  RH  040%=      5-min Rain = 0
KCL2 130345Z 08005KT 09/M05 A3026 RMK A01 T00851045  RH  039%=      5-min Rain = 0
KCL2 130346Z 08005KT 09/M04 A3026 RMK A01 T00851044  RH  040%=      5-min Rain = 0
KCL2 130347Z 08005KT 09/M04 A3026 RMK A01 T00851044  RH  040%=      5-min Rain = 0
KCL2 130348Z 08006KT 09/M04 A3026 RMK A01 T00851044  RH  040%=      5-min Rain = 0
KCL2 130349Z 08005KT 09/M04 A3026 RMK A01 T00851044  RH  040%=      5-min Rain = 0
KCL2 130350Z 08005KT 08/M04 A3027 RMK A01 T00841044  RH  040%=      5-min Rain = 0
KCL2 130351Z 08006KT 08/M04 A3027 RMK A01 T00841044  RH  040%=      5-min Rain = 0
KCL2 130352Z 08006KT 09/M04 A3026 RMK A01 T00851044  RH  040%=      5-min Rain = 0
KCL2 130353Z 07006KT 09/M04 A3027 RMK A01 T00871044  RH  039%=      5-min Rain = 0
KCL2 130354Z 08006KT 09/M04 A3027 RMK A01 T00871044  RH  039%=      5-min Rain = 0
KCL2 130355Z 08006KT 09/M04 A3027 RMK A01 T00861044  RH  040%=      5-min Rain = 0
KCL2 130356Z 08006KT 09/M04 A3027 RMK A01 T00851043  RH  040%=      5-min Rain = 0
KCL2 130357Z 07006KT 09/M04 A3027 RMK A01 T00851043  RH  040%=      5-min Rain = 0
KCL2 130358Z 07006KT 08/M04 A3027 RMK A01 T00841044  RH  040%=      5-min Rain = 0
KCL2 130359Z 07006KT 09/M04 A3027 RMK A01 T00861044  RH  040%=      5-min Rain = 0
KCL2 130400Z 07005KT 09/M04 A3027 RMK A01 T00861044  RH  040%=      5-min Rain = 0
KCL2 130401Z 07006KT 09/M04 A3027 RMK A01 T00861043  RH  040%=      5-min Rain = 0
KCL2 130402Z 07007KT 09/M04 A3027 RMK A01 T00861044  RH  040%=      5-min Rain = 0
KCL2 130403Z 07006KT 09/M04 A3027 RMK A01 T00861043  RH  040%=      5-min Rain = 0
KCL2 130404Z 07007KT 09/M04 A3027 RMK A01 T00861044  RH  040%=      5-min Rain = 0
KCL2 130405Z 07006KT 09/M04 A3027 RMK A01 T00871043  RH  040%=      5-min Rain = 0
KCL2 130406Z 07007KT 09/M04 A3027 RMK A01 T00881043  RH  039%=      5-min Rain = 0
KCL2 130407Z 07006KT 09/M04 A3027 RMK A01 T00881044  RH  039%=      5-min Rain = 0
KCL2 130408Z 07006KT 09/M04 A3027 RMK A01 T00881044  RH  039%=      5-min Rain = 0
KCL2 130409Z 07006KT 09/M04 A3027 RMK A01 T00881044  RH  039%=      5-min Rain = 0
KCL2 130410Z 07006KT 09/M04 A3027 RMK A01 T00881044  RH  039%=      5-min Rain = 0
KCL2 130411Z 07006KT 09/M04 A3027 RMK A01 T00871044  RH  039%=      5-min Rain = 0
KCL2 130412Z 07006KT 09/M04 A3027 RMK A01 T00861044  RH  039%=      5-min Rain = 0
KCL2 130413Z 07006KT 09/M04 A3027 RMK A01 T00871044  RH  040%=      5-min Rain = 0
KCL2 130414Z 07006KT 09/M04 A3027 RMK A01 T00871044  RH  039%=      5-min Rain = 0
KCL2 130415Z 07006KT 09/M04 A3027 RMK A01 T00881044  RH  039%=      5-min Rain = 0
KCL2 130416Z 07006KT 09/M04 A3027 RMK A01 T00891044  RH  039%=      5-min Rain = 0
KCL2 130417Z 07007KT 09/M04 A3027 RMK A01 T00901043  RH  039%=      5-min Rain = 0
KCL2 130418Z 07006KT 09/M04 A3027 RMK A01 T00901044  RH  039%=      5-min Rain = 0
KCL2 130419Z 07006KT 09/M04 A3027 RMK A01 T00901044  RH  039%=      5-min Rain = 0
KCL2 130420Z 07006KT 09/M04 A3027 RMK A01 T00901043  RH  039%=      5-min Rain = 0
KCL2 130421Z 07006KT 09/M04 A3027 RMK A01 T00901043  RH  039%=      5-min Rain = 0
KCL2 130422Z 08007KT 09/M04 A3027 RMK A01 T00901044  RH  039%=      5-min Rain = 0
KCL2 130423Z 07006KT 09/M04 A3027 RMK A01 T00901043  RH  039%=      5-min Rain = 0
KCL2 130424Z 08007KT 09/M04 A3027 RMK A01 T00901044  RH  039%=      5-min Rain = 0
KCL2 130425Z 07006KT 09/M04 A3027 RMK A01 T00901044  RH  039%=      5-min Rain = 0
KCL2 130426Z 07007KT 09/M04 A3027 RMK A01 T00901043  RH  039%=      5-min Rain = 0
KCL2 130427Z 07007KT 09/M04 A3027 RMK A01 T00891044  RH  039%=      5-min Rain = 0
KCL2 130428Z 07007KT 09/M04 A3027 RMK A01 T00891044  RH  039%=      5-min Rain = 0
KCL2 130429Z 07007KT 09/M04 A3027 RMK A01 T00891044  RH  039%=      5-min Rain = 0
KCL2 130430Z 07007KT 09/M04 A3027 RMK A01 T00901044  RH  038%=      5-min Rain = 0
KCL2 130431Z 07007KT 09/M04 A3027 RMK A01 T00911044  RH  038%=      5-min Rain = 0
KCL2 130432Z 07008KT 09/M04 A3027 RMK A01 T00901044  RH  038%=      5-min Rain = 0
KCL2 130433Z 07007KT 09/M05 A3027 RMK A01 T00901045  RH  038%=      5-min Rain = 0
KCL2 130434Z 07008KT 09/M04 A3027 RMK A01 T00911044  RH  038%=      5-min Rain = 0
KCL2 130435Z 07008KT 09/M04 A3027 RMK A01 T00911044  RH  038%=      5-min Rain = 0
KCL2 130436Z 07008KT 09/M04 A3027 RMK A01 T00901044  RH  039%=      5-min Rain = 0
KCL2 130437Z 07009KT 09/M04 A3027 RMK A01 T00891044  RH  039%=      5-min Rain = 0
KCL2 130438Z 07009KT 09/M04 A3027 RMK A01 T00891044  RH  039%=      5-min Rain = 0
KCL2 130439Z 07008KT 09/M04 A3027 RMK A01 T00891044  RH  039%=      5-min Rain = 0
KCL2 130440Z 07008KT 09/M04 A3027 RMK A01 T00891043  RH  039%=      5-min Rain = 0
KCL2 130441Z 07009KT 09/M04 A3027 RMK A01 T00891044  RH  039%=      5-min Rain = 0
KCL2 130442Z 07008KT 09/M04 A3027 RMK A01 T00891044  RH  039%=      5-min Rain = 0
KCL2 130443Z 07009KT 09/M04 A3027 RMK A01 T00891044  RH  039%=      5-min Rain = 0
KCL2 130444Z 07008KT 09/M04 A3027 RMK A01 T00901043  RH  039%=      5-min Rain = 0
KCL2 130445Z 07009KT 09/M04 A3027 RMK A01 T00901044  RH  039%=      5-min Rain = 0
KCL2 130446Z 07009KT 09/M04 A3027 RMK A01 T00891043  RH  039%=      5-min Rain = 0
KCL2 130447Z 07009KT 09/M04 A3027 RMK A01 T00891043  RH  039%=      5-min Rain = 0
KCL2 130448Z 07009KT 09/M04 A3027 RMK A01 T00881043  RH  039%=      5-min Rain = 0
KCL2 130449Z 07008KT 09/M04 A3027 RMK A01 T00881043  RH  039%=      5-min Rain = 0
KCL2 130450Z 07008KT 09/M04 A3027 RMK A01 T00881043  RH  039%=      5-min Rain = 0
KCL2 130451Z 07009KT 09/M04 A3027 RMK A01 T00871043  RH  039%=      5-min Rain = 0
KCL2 130452Z 07009KT 09/M04 A3027 RMK A01 T00881043  RH  039%=      5-min Rain = 0
KCL2 130453Z 08009KT 09/M04 A3027 RMK A01 T00891043  RH  039%=      5-min Rain = 0
KCL2 130454Z 07008KT 09/M04 A3027 RMK A01 T00901042  RH  039%=      5-min Rain = 0
KCL2 130455Z 08007KT 09/M04 A3027 RMK A01 T00901042  RH  039%=      5-min Rain = 0
KCL2 130456Z 08007KT 09/M04 A3027 RMK A01 T00891043  RH  039%=      5-min Rain = 0
KCL2 130457Z 08007KT 09/M04 A3027 RMK A01 T00881043  RH  039%=      5-min Rain = 0
KCL2 130458Z 07007KT 09/M04 A3027 RMK A01 T00871043  RH  040%=      5-min Rain = 0
KCL2 130459Z 07008KT 09/M04 A3027 RMK A01 T00871042  RH  040%=      5-min Rain = 0

Page generated in 0.1728 seconds.